Observation data for Panhandle on 04/23/2019      Previous  Date  Next       Current Mesonet Observations  Soil Data  Daily Summary Page  Observations in Plain Language
KPA1 230500Z 04004KT 11/10 A3015 RMK A01 T01100102  RH  095%=      5-min Rain = 0
KPA1 230501Z 03004KT 11/10 A3015 RMK A01 T01100102  RH  095%=      5-min Rain = 0
KPA1 230502Z 04004KT 11/10 A3015 RMK A01 T01100102  RH  095%=      5-min Rain = 0
KPA1 230503Z 04004KT 11/10 A3015 RMK A01 T01100103  RH  095%=      5-min Rain = 0
KPA1 230504Z 04004KT 11/10 A3015 RMK A01 T01100103  RH  095%=      5-min Rain = 0
KPA1 230505Z 04005KT 11/10 A3015 RMK A01 T01100103  RH  095%=      5-min Rain = 0
KPA1 230506Z 03004KT 11/10 A3015 RMK A01 T01100103  RH  095%=      5-min Rain = 0
KPA1 230507Z 03005KT 11/10 A3015 RMK A01 T01100103  RH  095%=      5-min Rain = 0
KPA1 230508Z 02005KT 11/10 A3015 RMK A01 T01100103  RH  096%=      5-min Rain = 0
KPA1 230509Z 02006KT 11/10 A3014 RMK A01 T01100103  RH  096%=      5-min Rain = 0
KPA1 230510Z 02006KT 11/10 A3014 RMK A01 T01100103  RH  095%=      5-min Rain = 0
KPA1 230511Z 02007KT 11/10 A3014 RMK A01 T01100102  RH  095%=      5-min Rain = 0
KPA1 230512Z 01007KT 11/10 A3014 RMK A01 T01100102  RH  095%=      5-min Rain = 0
KPA1 230513Z 02008KT 11/10 A3014 RMK A01 T01100102  RH  095%=      5-min Rain = 0
KPA1 230514Z 02008KT 11/10 A3014 RMK A01 T01100101  RH  094%=      5-min Rain = 0
KPA1 230515Z 02008KT 11/10 A3014 RMK A01 T01100102  RH  094%=      5-min Rain = 0
KPA1 230516Z 02009KT 11/10 A3013 RMK A01 T01100101  RH  094%=      5-min Rain = 0
KPA1 230517Z 03008KT 11/10 A3013 RMK A01 T01100102  RH  094%=      5-min Rain = 0
KPA1 230518Z 03008KT 11/10 A3013 RMK A01 T01100102  RH  094%=      5-min Rain = 0
KPA1 230519Z 03008KT 11/10 A3013 RMK A01 T01100101  RH  094%=      5-min Rain = 0
KPA1 230520Z 03008KT 11/10 A3013 RMK A01 T01100102  RH  094%=      5-min Rain = 0
KPA1 230521Z 03007KT 11/10 A3013 RMK A01 T01100102  RH  095%=      5-min Rain = 0
KPA1 230522Z 03008KT 11/10 A3013 RMK A01 T01100102  RH  095%=      5-min Rain = 0
KPA1 230523Z 03008KT 11/10 A3013 RMK A01 T01100102  RH  095%=      5-min Rain = 0
KPA1 230524Z 03007KT 11/10 A3013 RMK A01 T01100102  RH  095%=      5-min Rain = 0
KPA1 230525Z 03007KT 11/10 A3013 RMK A01 T01100102  RH  095%=      5-min Rain = 0
KPA1 230526Z 03007KT 11/10 A3013 RMK A01 T01100102  RH  095%=      5-min Rain = 0
KPA1 230527Z 03007KT 11/10 A3013 RMK A01 T01100102  RH  095%=      5-min Rain = 0
KPA1 230528Z 03007KT 11/10 A3013 RMK A01 T01100102  RH  095%=      5-min Rain = 0
KPA1 230529Z 03008KT 11/10 A3013 RMK A01 T01100102  RH  095%=      5-min Rain = 0
KPA1 230530Z 03008KT 11/10 A3013 RMK A01 T01100101  RH  095%=      5-min Rain = 0
KPA1 230531Z 02009KT 11/10 A3013 RMK A01 T01100101  RH  094%=      5-min Rain = 0
KPA1 230532Z 02009KT 11/10 A3013 RMK A01 T01100100  RH  094%=      5-min Rain = 0
KPA1 230533Z 02009KT 11/10 A3013 RMK A01 T01100100  RH  094%=      5-min Rain = 0
KPA1 230534Z 02008KT 11/10 A3013 RMK A01 T01100099  RH  093%=      5-min Rain = 0
KPA1 230535Z 02008KT 11/10 A3013 RMK A01 T01100099  RH  093%=      5-min Rain = 0
KPA1 230536Z 02007KT 11/10 A3013 RMK A01 T01100100  RH  093%=      5-min Rain = 0
KPA1 230537Z 02008KT 11/10 A3013 RMK A01 T01100099  RH  093%=      5-min Rain = 0
KPA1 230538Z 02008KT 11/10 A3013 RMK A01 T01090099  RH  094%=      5-min Rain = 0
KPA1 230539Z 02008KT 11/10 A3013 RMK A01 T01090100  RH  094%=      5-min Rain = 0
KPA1 230540Z 02009KT 11/10 A3013 RMK A01 T01090099  RH  094%=      5-min Rain = 0
KPA1 230541Z 02008KT 11/10 A3013 RMK A01 T01090099  RH  094%=      5-min Rain = 0
KPA1 230542Z 02007KT 11/10 A3013 RMK A01 T01090099  RH  094%=      5-min Rain = 0
KPA1 230543Z 02009KT 11/10 A3013 RMK A01 T01090099  RH  094%=      5-min Rain = 0
KPA1 230544Z 02009KT 11/10 A3013 RMK A01 T01080099  RH  094%=      5-min Rain = 0
KPA1 230545Z 02008KT 11/10 A3012 RMK A01 T01080099  RH  094%=      5-min Rain = 0
KPA1 230546Z 02008KT 11/10 A3012 RMK A01 T01080098  RH  094%=      5-min Rain = 0
KPA1 230547Z 02009KT 11/10 A3012 RMK A01 T01080098  RH  094%=      5-min Rain = 0
KPA1 230548Z 02009KT 11/10 A3012 RMK A01 T01080098  RH  094%=      5-min Rain = 0
KPA1 230549Z 02008KT 11/10 A3012 RMK A01 T01080098  RH  094%=      5-min Rain = 0
KPA1 230550Z 02008KT 11/10 A3013 RMK A01 T01080098  RH  093%=      5-min Rain = 0
KPA1 230551Z 02008KT 11/10 A3013 RMK A01 T01080098  RH  093%=      5-min Rain = 0
KPA1 230552Z 01008KT 11/10 A3013 RMK A01 T01080098  RH  094%=      5-min Rain = 0
KPA1 230553Z 02008KT 11/10 A3013 RMK A01 T01080098  RH  094%=      5-min Rain = 0
KPA1 230554Z 02008KT 11/10 A3013 RMK A01 T01080098  RH  093%=      5-min Rain = 0
KPA1 230555Z 02008KT 11/10 A3013 RMK A01 T01090098  RH  093%=      5-min Rain = 0
KPA1 230556Z 02007KT 11/10 A3013 RMK A01 T01090098  RH  093%=      5-min Rain = 0
KPA1 230557Z 02007KT 11/10 A3013 RMK A01 T01090098  RH  093%=      5-min Rain = 0
KPA1 230558Z 02007KT 11/10 A3013 RMK A01 T01090098  RH  093%=      5-min Rain = 0
KPA1 230559Z 02008KT 11/10 A3013 RMK A01 T01090098  RH  093%=      5-min Rain = 0
KPA1 230600Z 02007KT 11/10 A3013 RMK A01 T01090098  RH  093%=      5-min Rain = 0
KPA1 230601Z 01007KT 11/10 A3013 RMK A01 T01090098  RH  093%=      5-min Rain = 0
KPA1 230602Z 01008KT 11/10 A3013 RMK A01 T01090099  RH  093%=      5-min Rain = 0
KPA1 230603Z 01007KT 11/10 A3013 RMK A01 T01090098  RH  093%=      5-min Rain = 0
KPA1 230604Z 01008KT 11/10 A3013 RMK A01 T01090098  RH  093%=      5-min Rain = 0
KPA1 230605Z 01008KT 11/10 A3013 RMK A01 T01090098  RH  093%=      5-min Rain = 0
KPA1 230606Z 01008KT 11/10 A3013 RMK A01 T01090098  RH  093%=      5-min Rain = 0
KPA1 230607Z 02009KT 11/10 A3013 RMK A01 T01090098  RH  093%=      5-min Rain = 0
KPA1 230608Z 02008KT 11/10 A3013 RMK A01 T01090098  RH  093%=      5-min Rain = 0
KPA1 230609Z 02009KT 11/10 A3013 RMK A01 T01090098  RH  093%=      5-min Rain = 0
KPA1 230610Z 02008KT 11/10 A3013 RMK A01 T01090098  RH  093%=      5-min Rain = 0
KPA1 230611Z 02008KT 11/10 A3013 RMK A01 T01090098  RH  093%=      5-min Rain = 0
KPA1 230612Z 02008KT 11/10 A3013 RMK A01 T01090098  RH  093%=      5-min Rain = 0
KPA1 230613Z 02009KT 11/10 A3013 RMK A01 T01090098  RH  093%=      5-min Rain = 0
KPA1 230614Z 02008KT 11/10 A3012 RMK A01 T01090098  RH  093%=      5-min Rain = 0
KPA1 230615Z 02008KT 11/10 A3012 RMK A01 T01090098  RH  093%=      5-min Rain = 0
KPA1 230616Z 02007KT 11/10 A3012 RMK A01 T01090098  RH  093%=      5-min Rain = 0
KPA1 230617Z 02008KT 11/10 A3012 RMK A01 T01090099  RH  093%=      5-min Rain = 0
KPA1 230618Z 02009KT 11/10 A3012 RMK A01 T01090099  RH  093%=      5-min Rain = 0
KPA1 230619Z 02009KT 11/10 A3012 RMK A01 T01090099  RH  093%=      5-min Rain = 0
KPA1 230620Z 02009KT 11/10 A3012 RMK A01 T01090099  RH  093%=      5-min Rain = 0
KPA1 230621Z 02009KT 11/10 A3012 RMK A01 T01090099  RH  093%=      5-min Rain = 0
KPA1 230622Z 02009KT 11/10 A3013 RMK A01 T01090098  RH  093%=      5-min Rain = 0
KPA1 230623Z 02008KT 11/10 A3013 RMK A01 T01090099  RH  093%=      5-min Rain = 0
KPA1 230624Z 02009KT 11/10 A3012 RMK A01 T01090099  RH  094%=      5-min Rain = 0
KPA1 230625Z 02009KT 11/10 A3012 RMK A01 T01090099  RH  094%=      5-min Rain = 0
KPA1 230626Z 02009KT 11/10 A3012 RMK A01 T01090099  RH  094%=      5-min Rain = 0
KPA1 230627Z 02010KT 11/10 A3012 RMK A01 T01090099  RH  094%=      5-min Rain = 0
KPA1 230628Z 02010KT 11/10 A3012 RMK A01 T01090099  RH  094%=      5-min Rain = 0
KPA1 230629Z 02011KT 11/10 A3012 RMK A01 T01090099  RH  094%=      5-min Rain = 0
KPA1 230630Z 02010KT 11/10 A3012 RMK A01 T01090099  RH  094%=      5-min Rain = 0
KPA1 230631Z 02010KT 11/10 A3012 RMK A01 T01090099  RH  094%=      5-min Rain = 0
KPA1 230632Z 02008KT 11/10 A3012 RMK A01 T01090099  RH  094%=      5-min Rain = 0
KPA1 230633Z 02010KT 11/10 A3012 RMK A01 T01090099  RH  094%=      5-min Rain = 0
KPA1 230634Z 02009KT 11/10 A3012 RMK A01 T01080098  RH  094%=      5-min Rain = 0
KPA1 230635Z 02008KT 11/10 A3012 RMK A01 T01080099  RH  094%=      5-min Rain = 0
KPA1 230636Z 02009KT 11/10 A3012 RMK A01 T01080099  RH  094%=      5-min Rain = 0
KPA1 230637Z 02008KT 11/10 A3012 RMK A01 T01080098  RH  094%=      5-min Rain = 0
KPA1 230638Z 02008KT 11/10 A3012 RMK A01 T01080099  RH  094%=      5-min Rain = 0
KPA1 230639Z 02008KT 11/10 A3012 RMK A01 T01080099  RH  094%=      5-min Rain = 0
KPA1 230640Z 02007KT 11/10 A3012 RMK A01 T01080099  RH  094%=      5-min Rain = 0
KPA1 230641Z 02009KT 11/10 A3012 RMK A01 T01080099  RH  094%=      5-min Rain = 0
KPA1 230642Z 02009KT 11/10 A3011 RMK A01 T01080099  RH  094%=      5-min Rain = 0
KPA1 230643Z 02009KT 11/10 A3011 RMK A01 T01080099  RH  094%=      5-min Rain = 0
KPA1 230644Z 02009KT 11/10 A3011 RMK A01 T01080099  RH  094%=      5-min Rain = 0
KPA1 230645Z 01009KT 11/10 A3011 RMK A01 T01080099  RH  094%=      5-min Rain = 0
KPA1 230646Z 02009KT 11/10 A3011 RMK A01 T01080099  RH  094%=      5-min Rain = 0
KPA1 230647Z 01008KT 11/10 A3011 RMK A01 T01080099  RH  094%=      5-min Rain = 0
KPA1 230648Z 01010KT 11/10 A3011 RMK A01 T01080099  RH  094%=      5-min Rain = 0
KPA1 230649Z 01009KT 11/10 A3011 RMK A01 T01080099  RH  094%=      5-min Rain = 0
KPA1 230650Z 01010KT 11/10 A3011 RMK A01 T01080099  RH  094%=      5-min Rain = 0
KPA1 230651Z 01011KT 11/10 A3011 RMK A01 T01080099  RH  094%=      5-min Rain = 0
KPA1 230652Z 01010KT 11/10 A3011 RMK A01 T01080099  RH  094%=      5-min Rain = 0
KPA1 230653Z 01010KT 11/10 A3011 RMK A01 T01080100  RH  095%=      5-min Rain = 0
KPA1 230654Z 01010KT 11/10 A3011 RMK A01 T01080099  RH  095%=      5-min Rain = 0
KPA1 230655Z 01010KT 11/10 A3011 RMK A01 T01080100  RH  095%=      5-min Rain = 0
KPA1 230656Z 00010KT 11/10 A3011 RMK A01 T01080100  RH  095%=      5-min Rain = 0
KPA1 230657Z 00008KT 11/10 A3011 RMK A01 T01080100  RH  095%=      5-min Rain = 0
KPA1 230658Z 01009KT 11/10 A3011 RMK A01 T01080100  RH  095%=      5-min Rain = 0
KPA1 230659Z 00008KT 11/10 A3011 RMK A01 T01070100  RH  095%=      5-min Rain = 0
KPA1 230700Z 00008KT 11/10 A301 RMK A01 T01070099  RH  095%=      5-min Rain = 0
KPA1 230701Z 01009KT 11/10 A301 RMK A01 T01070100  RH  095%=      5-min Rain = 0
KPA1 230702Z 01008KT 11/10 A3011 RMK A01 T01070100  RH  095%=      5-min Rain = 0
KPA1 230703Z 01008KT 11/10 A3011 RMK A01 T01070100  RH  096%=      5-min Rain = 0
KPA1 230704Z 01008KT 11/10 A3011 RMK A01 T01070100  RH  096%=      5-min Rain = 0
KPA1 230705Z 01010KT 11/10 A3011 RMK A01 T01070100  RH  096%=      5-min Rain = 0
KPA1 230706Z 36010KT 11/10 A3011 RMK A01 T01070100  RH  096%=      5-min Rain = 0
KPA1 230707Z 01009KT 11/10 A3011 RMK A01 T01070100  RH  096%=      5-min Rain = 0
KPA1 230708Z 00009KT 11/10 A3011 RMK A01 T01060100  RH  096%=      5-min Rain = 0
KPA1 230709Z 00008KT 11/10 A3011 RMK A01 T01060100  RH  096%=      5-min Rain = 0
KPA1 230710Z 01008KT 11/10 A3011 RMK A01 T01060101  RH  096%=      5-min Rain = 0
KPA1 230711Z 00009KT 11/10 A3011 RMK A01 T01060101  RH  096%=      5-min Rain = 0
KPA1 230712Z 00008KT 11/10 A3011 RMK A01 T01070101  RH  096%=      5-min Rain = 0
KPA1 230713Z 01009KT 11/10 A301 RMK A01 T01070101  RH  096%=      5-min Rain = 0
KPA1 230714Z 00009KT 11/10 A301 RMK A01 T01070101  RH  096%=      5-min Rain = 0
KPA1 230715Z 01009KT 11/10 A301 RMK A01 T01070101  RH  096%=      5-min Rain = 0
KPA1 230716Z 01010KT 11/10 A301 RMK A01 T01070101  RH  096%=      5-min Rain = 0
KPA1 230717Z 00010KT 11/10 A301 RMK A01 T01070101  RH  096%=      5-min Rain = 0
KPA1 230718Z 00010KT 11/10 A301 RMK A01 T01070101  RH  096%=      5-min Rain = 0
KPA1 230719Z 00009KT 11/10 A301 RMK A01 T01070101  RH  096%=      5-min Rain = 0
KPA1 230720Z 01010KT 11/10 A301 RMK A01 T01070101  RH  096%=      5-min Rain = 0
KPA1 230721Z 00009KT 11/10 A301 RMK A01 T01070101  RH  096%=      5-min Rain = 0
KPA1 230722Z 00010KT 11/10 A301 RMK A01 T01070102  RH  096%=      5-min Rain = 0
KPA1 230723Z 01009KT 11/10 A301 RMK A01 T01070102  RH  096%=      5-min Rain = 0
KPA1 230724Z 01008KT 11/10 A301 RMK A01 T01070102  RH  097%=      5-min Rain = 0
KPA1 230725Z 00010KT 11/10 A301 RMK A01 T01070102  RH  096%=      5-min Rain = 0
KPA1 230726Z 01009KT 11/10 A301 RMK A01 T01070102  RH  097%=      5-min Rain = 0
KPA1 230727Z 01009KT 11/10 A301 RMK A01 T01070102  RH  097%=      5-min Rain = 0
KPA1 230728Z 00009KT 11/10 A301 RMK A01 T01070102  RH  097%=      5-min Rain = 0
KPA1 230729Z 01009KT 11/10 A301 RMK A01 T01070102  RH  097%=      5-min Rain = 0
KPA1 230730Z 00008KT 11/10 A301 RMK A01 T01070102  RH  097%=      5-min Rain = 0
KPA1 230731Z 01009KT 11/10 A301 RMK A01 T01070103  RH  097%=      5-min Rain = 0
KPA1 230732Z 00008KT 11/10 A301 RMK A01 T01070103  RH  097%=      5-min Rain = 0
KPA1 230733Z 01009KT 11/10 A301 RMK A01 T01070103  RH  097%=      5-min Rain = 0
KPA1 230734Z 01009KT 11/10 A301 RMK A01 T01080103  RH  097%=      5-min Rain = 0
KPA1 230735Z 01008KT 11/10 A301 RMK A01 T01080103  RH  097%=      5-min Rain = 0
KPA1 230736Z 00009KT 11/10 A301 RMK A01 T01080103  RH  097%=      5-min Rain = 0
KPA1 230737Z 00009KT 11/10 A301 RMK A01 T01080103  RH  097%=      5-min Rain = 0
KPA1 230738Z 01007KT 11/10 A301 RMK A01 T01080103  RH  097%=      5-min Rain = 0
KPA1 230739Z 01007KT 11/10 A301 RMK A01 T01080104  RH  097%=      5-min Rain = 0
KPA1 230740Z 01009KT 11/10 A301 RMK A01 T01080104  RH  097%=      5-min Rain = 0
KPA1 230741Z 01010KT 11/10 A3009 RMK A01 T01080104  RH  097%=      5-min Rain = 0
KPA1 230742Z 01008KT 11/10 A3009 RMK A01 T01080104  RH  097%=      5-min Rain = 0
KPA1 230743Z 01009KT 11/10 A3009 RMK A01 T01090104  RH  097%=      5-min Rain = 0
KPA1 230744Z 01009KT 11/11 A3009 RMK A01 T01090105  RH  097%=      5-min Rain = 0
KPA1 230745Z 02009KT 11/10 A3009 RMK A01 T01090104  RH  097%=      5-min Rain = 0
KPA1 230746Z 01010KT 11/10 A3009 RMK A01 T01090104  RH  097%=      5-min Rain = 0
KPA1 230747Z 01010KT 11/11 A3009 RMK A01 T01090105  RH  097%=      5-min Rain = 0
KPA1 230748Z 02008KT 11/11 A3009 RMK A01 T01090105  RH  097%=      5-min Rain = 0
KPA1 230749Z 01010KT 11/11 A3009 RMK A01 T01100105  RH  097%=      5-min Rain = 0
KPA1 230750Z 02009KT 11/11 A301 RMK A01 T01100105  RH  097%=      5-min Rain = 0
KPA1 230751Z 02008KT 11/11 A301 RMK A01 T01100106  RH  097%=      5-min Rain = 0
KPA1 230752Z 02009KT 11/11 A301 RMK A01 T01100106  RH  097%=      5-min Rain = 0
KPA1 230753Z 03009KT 11/11 A301 RMK A01 T01100106  RH  097%=      5-min Rain = 0
KPA1 230754Z 02008KT 11/11 A301 RMK A01 T01100106  RH  097%=      5-min Rain = 0
KPA1 230755Z 02008KT 11/11 A301 RMK A01 T01100106  RH  097%=      5-min Rain = 0
KPA1 230756Z 02008KT 11/11 A301 RMK A01 T01110106  RH  097%=      5-min Rain = 0
KPA1 230757Z 02008KT 11/11 A301 RMK A01 T01100106  RH  097%=      5-min Rain = 0
KPA1 230758Z 02008KT 11/11 A301 RMK A01 T01110106  RH  097%=      5-min Rain = 0
KPA1 230759Z 02007KT 11/11 A301 RMK A01 T01110106  RH  097%=      5-min Rain = 0
KPA1 230800Z 02007KT 11/11 A301 RMK A01 T01110107  RH  097%=      5-min Rain = 0
KPA1 230801Z 02007KT 11/11 A301 RMK A01 T01110107  RH  097%=      5-min Rain = 0
KPA1 230802Z 02009KT 11/11 A301 RMK A01 T01110107  RH  097%=      5-min Rain = 0
KPA1 230803Z 02008KT 11/11 A3009 RMK A01 T01110107  RH  097%=      5-min Rain = 0
KPA1 230804Z 02010KT 11/11 A3009 RMK A01 T01120108  RH  097%=      5-min Rain = 0
KPA1 230805Z 01009KT 11/11 A3009 RMK A01 T01120108  RH  097%=      5-min Rain = 0
KPA1 230806Z 02009KT 11/11 A3009 RMK A01 T01120108  RH  097%=      5-min Rain = 0
KPA1 230807Z 02009KT 11/11 A3009 RMK A01 T01130109  RH  097%=      5-min Rain = 0
KPA1 230808Z 02006KT 11/11 A3009 RMK A01 T01130108  RH  097%=      5-min Rain = 0
KPA1 230809Z 01008KT 11/11 A3009 RMK A01 T01120108  RH  097%=      5-min Rain = 0
KPA1 230810Z 02008KT 11/11 A3009 RMK A01 T01130108  RH  097%=      5-min Rain = 0
KPA1 230811Z 02009KT 11/11 A3009 RMK A01 T01130109  RH  097%=      5-min Rain = 0
KPA1 230812Z 01009KT 11/11 A3009 RMK A01 T01130109  RH  097%=      5-min Rain = 0
KPA1 230813Z 01009KT 11/11 A3009 RMK A01 T01130109  RH  097%=      5-min Rain = 0
KPA1 230814Z 01009KT 11/11 A3009 RMK A01 T01130109  RH  097%=      5-min Rain = 0
KPA1 230815Z 01009KT 11/11 A3009 RMK A01 T01140109  RH  097%=      5-min Rain = 0
KPA1 230816Z 02010KT 11/11 A3009 RMK A01 T01140109  RH  097%=      5-min Rain = 0
KPA1 230817Z 03010KT 11/11 A3009 RMK A01 T01140108  RH  097%=      5-min Rain = 0
KPA1 230818Z 02009KT 11/11 A3009 RMK A01 T01140109  RH  097%=      5-min Rain = 0
KPA1 230819Z 02009KT 11/11 A3009 RMK A01 T01140109  RH  096%=      5-min Rain = 0
KPA1 230820Z 02009KT 11/11 A3009 RMK A01 T01140109  RH  096%=      5-min Rain = 0
KPA1 230821Z 02009KT 11/11 A3009 RMK A01 T01140109  RH  096%=      5-min Rain = 0
KPA1 230822Z 02010KT 11/11 A3009 RMK A01 T01140109  RH  096%=      5-min Rain = 0
KPA1 230823Z 02010KT 11/11 A3009 RMK A01 T01140109  RH  096%=      5-min Rain = 0
KPA1 230824Z 01007KT 11/11 A3009 RMK A01 T01140109  RH  096%=      5-min Rain = 0
KPA1 230825Z 01009KT 11/11 A3008 RMK A01 T01140109  RH  097%=      5-min Rain = 0
KPA1 230826Z 01009KT 11/11 A3008 RMK A01 T01140109  RH  097%=      5-min Rain = 0
KPA1 230827Z 01009KT 11/11 A3008 RMK A01 T01140109  RH  097%=      5-min Rain = 0
KPA1 230828Z 01010KT 11/11 A3008 RMK A01 T01140109  RH  097%=      5-min Rain = 0
KPA1 230829Z 01011KT 11/11 A3008 RMK A01 T01140109  RH  097%=      5-min Rain = 0
KPA1 230830Z 01012KT 11/11 A3008 RMK A01 T01140109  RH  097%=      5-min Rain = 0
KPA1 230831Z 01011KT 11/11 A3008 RMK A01 T01140109  RH  097%=      5-min Rain = 0
KPA1 230832Z 01011KT 11/11 A3008 RMK A01 T01140109  RH  097%=      5-min Rain = 0
KPA1 230833Z 01010KT 11/11 A3008 RMK A01 T01140109  RH  097%=      5-min Rain = 0
KPA1 230834Z 01012KT 12/11 A3008 RMK A01 T01150110  RH  097%=      5-min Rain = 0
KPA1 230835Z 01012KT 11/11 A3008 RMK A01 T01140109  RH  097%=      5-min Rain = 0
KPA1 230836Z 01011KT 11/11 A3008 RMK A01 T01140109  RH  097%=      5-min Rain = 0
KPA1 230837Z 01010KT 11/11 A3008 RMK A01 T01140109  RH  097%=      5-min Rain = 0
KPA1 230838Z 01009KT 11/11 A3008 RMK A01 T01140109  RH  097%=      5-min Rain = 0
KPA1 230839Z 02009KT 11/11 A3008 RMK A01 T01140109  RH  097%=      5-min Rain = 0
KPA1 230840Z 02011KT 11/11 A3008 RMK A01 T01140109  RH  097%=      5-min Rain = 0
KPA1 230841Z 01011KT 11/11 A3008 RMK A01 T01140109  RH  096%=      5-min Rain = 0
KPA1 230842Z 02011KT 11/11 A3008 RMK A01 T01140109  RH  096%=      5-min Rain = 0
KPA1 230843Z 02010KT 11/11 A3008 RMK A01 T01140109  RH  096%=      5-min Rain = 0
KPA1 230844Z 02011KT 11/11 A3008 RMK A01 T01140109  RH  096%=      5-min Rain = 0
KPA1 230845Z 03011KT 11/11 A3008 RMK A01 T01140109  RH  096%=      5-min Rain = 0
KPA1 230846Z 02011KT 11/11 A3008 RMK A01 T01140109  RH  096%=      5-min Rain = 0
KPA1 230847Z 02013KT 11/11 A3008 RMK A01 T01140109  RH  096%=      5-min Rain = 0
KPA1 230848Z 02012KT 11/11 A3008 RMK A01 T01140109  RH  096%=      5-min Rain = 0
KPA1 230849Z 02013KT 11/11 A3008 RMK A01 T01140109  RH  096%=      5-min Rain = 0
KPA1 230850Z 02012KT 11/11 A3008 RMK A01 T01140109  RH  096%=      5-min Rain = 0
KPA1 230851Z 02012KT 11/11 A3008 RMK A01 T01140108  RH  096%=      5-min Rain = 0
KPA1 230852Z 03012KT 11/11 A3008 RMK A01 T01140108  RH  096%=      5-min Rain = 0
KPA1 230853Z 02009KT 11/11 A3008 RMK A01 T01140109  RH  096%=      5-min Rain = 0
KPA1 230854Z 02009KT 11/11 A3008 RMK A01 T01140109  RH  096%=      5-min Rain = 0
KPA1 230855Z 02008KT 11/11 A3008 RMK A01 T01140109  RH  097%=      5-min Rain = 0
KPA1 230856Z 02010KT 11/11 A3008 RMK A01 T01140109  RH  097%=      5-min Rain = 0
KPA1 230857Z 02012KT 11/11 A3008 RMK A01 T01140109  RH  097%=      5-min Rain = 0
KPA1 230858Z 02010KT 11/11 A3008 RMK A01 T01140109  RH  097%=      5-min Rain = 0
KPA1 230859Z 02010KT 11/11 A3008 RMK A01 T01140109  RH  097%=      5-min Rain = 0
KPA1 230900Z 02011KT 11/11 A3008 RMK A01 T01140109  RH  097%=      5-min Rain = 0
KPA1 230901Z 02010KT 11/11 A3008 RMK A01 T01140109  RH  097%=      5-min Rain = 0
KPA1 230902Z 02010KT 11/11 A3008 RMK A01 T01140109  RH  097%=      5-min Rain = 0
KPA1 230903Z 02012KT 11/11 A3008 RMK A01 T01140109  RH  097%=      5-min Rain = 0
KPA1 230904Z 02011KT 11/11 A3008 RMK A01 T01140109  RH  097%=      5-min Rain = 0
KPA1 230905Z 02013KT 11/11 A3007 RMK A01 T01140109  RH  097%=      5-min Rain = 0
KPA1 230906Z 02011KT 11/11 A3007 RMK A01 T01140109  RH  097%=      5-min Rain = 0
KPA1 230907Z 02011KT 11/11 A3007 RMK A01 T01140109  RH  097%=      5-min Rain = 0
KPA1 230908Z 02012KT 11/11 A3007 RMK A01 T01140109  RH  097%=      5-min Rain = 0
KPA1 230909Z 02013KT 11/11 A3007 RMK A01 T01140109  RH  097%=      5-min Rain = 0
KPA1 230910Z 02010KT 11/11 A3007 RMK A01 T01140109  RH  097%=      5-min Rain = 0
KPA1 230911Z 02011KT 11/11 A3007 RMK A01 T01140109  RH  097%=      5-min Rain = 0
KPA1 230912Z 02011KT 11/11 A3007 RMK A01 T01140109  RH  097%=      5-min Rain = 0
KPA1 230913Z 02012KT 11/11 A3007 RMK A01 T01140109  RH  097%=      5-min Rain = 0
KPA1 230914Z 03012KT 11/11 A3007 RMK A01 T01140109  RH  097%=      5-min Rain = 0
KPA1 230915Z 02013KT 11/11 A3007 RMK A01 T01140109  RH  097%=      5-min Rain = 0
KPA1 230916Z 02012KT 11/11 A3007 RMK A01 T01140109  RH  097%=      5-min Rain = 0
KPA1 230917Z 02012KT 11/11 A3007 RMK A01 T01140109  RH  097%=      5-min Rain = 0
KPA1 230918Z 03012KT 11/11 A3007 RMK A01 T01140109  RH  097%=      5-min Rain = 0
KPA1 230919Z 02011KT 11/11 A3008 RMK A01 T01140108  RH  097%=      5-min Rain = 0
KPA1 230920Z 03010KT 11/11 A3008 RMK A01 T01140109  RH  097%=      5-min Rain = 0
KPA1 230921Z 02011KT 11/11 A3008 RMK A01 T01140108  RH  097%=      5-min Rain = 0
KPA1 230922Z 03012KT 11/11 A3008 RMK A01 T01140109  RH  097%=      5-min Rain = 0
KPA1 230923Z 03011KT 11/11 A3008 RMK A01 T01140108  RH  096%=      5-min Rain = 0
KPA1 230924Z 02010KT 11/11 A3008 RMK A01 T01140108  RH  096%=      5-min Rain = 0
KPA1 230925Z 02010KT 11/11 A3008 RMK A01 T01140108  RH  096%=      5-min Rain = 0
KPA1 230926Z 02010KT 11/11 A3008 RMK A01 T01140108  RH  096%=      5-min Rain = 0
KPA1 230927Z 01011KT 11/11 A3008 RMK A01 T01140108  RH  097%=      5-min Rain = 0
KPA1 230928Z 02012KT 11/11 A3007 RMK A01 T01130108  RH  097%=      5-min Rain = 0
KPA1 230929Z 02013KT 11/11 A3008 RMK A01 T01130108  RH  097%=      5-min Rain = 0
KPA1 230930Z 03010KT 11/11 A3008 RMK A01 T01130108  RH  097%=      5-min Rain = 0
KPA1 230931Z 02011KT 11/11 A3008 RMK A01 T01130109  RH  097%=      5-min Rain = 0
KPA1 230932Z 02010KT 11/11 A3008 RMK A01 T01140109  RH  097%=      5-min Rain = 0
KPA1 230933Z 02011KT 11/11 A3008 RMK A01 T01130108  RH  097%=      5-min Rain = 0
KPA1 230934Z 01010KT 11/11 A3008 RMK A01 T01130108  RH  097%=      5-min Rain = 0
KPA1 230935Z 02011KT 11/11 A3008 RMK A01 T01130108  RH  097%=      5-min Rain = 0
KPA1 230936Z 01010KT 11/11 A3007 RMK A01 T01130109  RH  097%=      5-min Rain = 0
KPA1 230937Z 02011KT 11/11 A3007 RMK A01 T01130109  RH  097%=      5-min Rain = 0
KPA1 230938Z 02013KT 11/11 A3007 RMK A01 T01120109  RH  098%=      5-min Rain = 0
KPA1 230939Z 02011KT 11/11 A3007 RMK A01 T01120109  RH  098%=      5-min Rain = 0
KPA1 230940Z 02010KT 11/11 A3007 RMK A01 T01120109  RH  098%=      5-min Rain = 0
KPA1 230941Z 02011KT 11/11 A3007 RMK A01 T01120109  RH  098%=      5-min Rain = 0
KPA1 230942Z 02012KT 11/11 A3007 RMK A01 T01120109  RH  098%=      5-min Rain = 0
KPA1 230943Z 02011KT 11/11 A3007 RMK A01 T01120109  RH  098%=      5-min Rain = 0
KPA1 230944Z 02011KT 11/11 A3007 RMK A01 T01110109  RH  098%=      5-min Rain = 0
KPA1 230945Z 02011KT 11/11 A3007 RMK A01 T01120109  RH  098%=      5-min Rain = 0
KPA1 230946Z 02010KT 11/11 A3007 RMK A01 T01110109  RH  098%=      5-min Rain = 0
KPA1 230947Z 02008KT 11/11 A3008 RMK A01 T01120110  RH  099%=      5-min Rain = 0
KPA1 230948Z 02009KT 11/11 A3008 RMK A01 T01110109  RH  099%=      5-min Rain = 0
KPA1 230949Z 02012KT 11/11 A3008 RMK A01 T01120110  RH  099%=      5-min Rain = 0
KPA1 230950Z 02011KT 11/11 A3008 RMK A01 T01110109  RH  099%=      5-min Rain = 0
KPA1 230951Z 02009KT 11/11 A3008 RMK A01 T01110109  RH  099%=      5-min Rain = 0
KPA1 230952Z 02010KT 11/11 A3008 RMK A01 T01110110  RH  099%=      5-min Rain = 0
KPA1 230953Z 02010KT 11/11 A3008 RMK A01 T01110110  RH  099%=      5-min Rain = 0
KPA1 230954Z 02011KT 11/11 A3008 RMK A01 T01110110  RH  099%=      5-min Rain = 0
KPA1 230955Z 03011KT 11/11 A3008 RMK A01 T01110110  RH  099%=      5-min Rain = 0
KPA1 230956Z 03009KT 11/11 A3008 RMK A01 T01110110  RH  099%=      5-min Rain = 0
KPA1 230957Z 03009KT 11/11 A3008 RMK A01 T01110110  RH  099%=      5-min Rain = 0
KPA1 230958Z 03011KT 11/11 A3008 RMK A01 T01110110  RH  099%=      5-min Rain = 0
KPA1 230959Z 02010KT 11/11 A3008 RMK A01 T01110110  RH  099%=      5-min Rain = 0
KPA1 231000Z 03009KT 11/11 A3008 RMK A01 T01100109  RH  099%=      5-min Rain = 0
KPA1 231001Z 03010KT 11/11 A3008 RMK A01 T01110110  RH  099%=      5-min Rain = 0
KPA1 231002Z 03012KT 11/11 A3008 RMK A01 T01110110  RH  099%=      5-min Rain = 0
KPA1 231003Z 02011KT 11/11 A3008 RMK A01 T01110110  RH  099%=      5-min Rain = 0
KPA1 231004Z 02009KT 11/11 A3008 RMK A01 T01110110  RH  099%=      5-min Rain = 0
KPA1 231005Z 02009KT 11/11 A3008 RMK A01 T01110110  RH  099%=      5-min Rain = 0
KPA1 231006Z 02008KT 11/11 A3008 RMK A01 T01110110  RH  099%=      5-min Rain = 0
KPA1 231007Z 02010KT 11/11 A3008 RMK A01 T01110110  RH  099%=      5-min Rain = 0
KPA1 231008Z 01010KT 11/11 A3008 RMK A01 T01100110  RH  099%=      5-min Rain = 0
KPA1 231009Z 02011KT 11/11 A3008 RMK A01 T01110110  RH  099%=      5-min Rain = 0
KPA1 231010Z 02010KT 11/11 A3008 RMK A01 T01110110  RH  099%=      5-min Rain = 0
KPA1 231011Z 02010KT 11/11 A3008 RMK A01 T01100110  RH  100%=      5-min Rain = 0
KPA1 231012Z 02013KT 11/11 A3008 RMK A01 T01100109  RH  099%=      5-min Rain = 0.01
KPA1 231013Z 01011KT 11/11 A3008 RMK A01 T01100109  RH  100%=      5-min Rain = 0
KPA1 231014Z 01013KT 11/11 A3008 RMK A01 T01100109  RH  100%=      5-min Rain = 0
KPA1 231015Z 01012KT 11/11 A3008 RMK A01 T01100109  RH  100%=      5-min Rain = 0
KPA1 231016Z 01010KT 11/11 A3008 RMK A01 T01100109  RH  100%=      5-min Rain = 0
KPA1 231017Z 01012KT 11/11 A3008 RMK A01 T01100109  RH  100%=      5-min Rain = 0
KPA1 231018Z 01011KT 11/11 A3008 RMK A01 T01100109  RH  100%=      5-min Rain = 0
KPA1 231019Z 01011KT 11/11 A3008 RMK A01 T01100109  RH  100%=      5-min Rain = 0
KPA1 231020Z 02010KT 11/11 A3008 RMK A01 T01100109  RH  100%=      5-min Rain = 0
KPA1 231021Z 02009KT 11/11 A3008 RMK A01 T01100109  RH  100%=      5-min Rain = 0
KPA1 231022Z 01009KT 11/11 A3008 RMK A01 T01100110  RH  100%=      5-min Rain = 0
KPA1 231023Z 01008KT 11/11 A3008 RMK A01 T01090109  RH  100%=      5-min Rain = 0.01
KPA1 231024Z 01010KT 11/11 A3008 RMK A01 T01100109  RH  100%=      5-min Rain = 0
KPA1 231025Z 02011KT 11/11 A3008 RMK A01 T01090109  RH  100%=      5-min Rain = 0
KPA1 231026Z 02009KT 11/11 A3008 RMK A01 T01100109  RH  100%=      5-min Rain = 0
KPA1 231027Z 02011KT 11/11 A3008 RMK A01 T01100109  RH  100%=      5-min Rain = 0
KPA1 231028Z 02010KT 11/11 A3008 RMK A01 T01100109  RH  100%=      5-min Rain = 0
KPA1 231029Z 01009KT 11/11 A3008 RMK A01 T01100109  RH  100%=      5-min Rain = 0
KPA1 231030Z 02008KT 11/11 A3008 RMK A01 T01100109  RH  100%=      5-min Rain = 0
KPA1 231031Z 02010KT 11/11 A3008 RMK A01 T01100109  RH  100%=      5-min Rain = 0
KPA1 231032Z 02011KT 11/11 A3008 RMK A01 T01100110  RH  100%=      5-min Rain = 0
KPA1 231033Z 02012KT 11/11 A3008 RMK A01 T01090109  RH  100%=      5-min Rain = 0
KPA1 231034Z 03011KT 11/11 A3008 RMK A01 T01090109  RH  100%=      5-min Rain = 0.01
KPA1 231035Z 02012KT 11/11 A3008 RMK A01 T01090109  RH  100%=      5-min Rain = 0
KPA1 231036Z 01013KT 11/11 A3008 RMK A01 T01090109  RH  100%=      5-min Rain = 0
KPA1 231037Z 02012KT 11/11 A3008 RMK A01 T01090109  RH  100%=      5-min Rain = 0
KPA1 231038Z 02011KT 11/11 A3008 RMK A01 T01090109  RH  100%=      5-min Rain = 0
KPA1 231039Z 02010KT 11/11 A3008 RMK A01 T01090109  RH  100%=      5-min Rain = 0
KPA1 231040Z 02010KT 11/11 A3008 RMK A01 T01090109  RH  100%=      5-min Rain = 0
KPA1 231041Z 02012KT 11/11 A3009 RMK A01 T01090109  RH  100%=      5-min Rain = 0
KPA1 231042Z 02011KT 11/11 A3009 RMK A01 T01090109  RH  100%=      5-min Rain = 0
KPA1 231043Z 02009KT 11/11 A3009 RMK A01 T01090109  RH  100%=      5-min Rain = 0
KPA1 231044Z 03010KT 11/11 A3009 RMK A01 T01090109  RH  100%=      5-min Rain = 0
KPA1 231045Z 02009KT 11/11 A3009 RMK A01 T01090109  RH  100%=      5-min Rain = 0
KPA1 231046Z 02010KT 11/11 A3009 RMK A01 T01090109  RH  100%=      5-min Rain = 0
KPA1 231047Z 02010G15KT 11/11 A3009 RMK A01 T01090109  RH  100%=      5-min Rain = 0
KPA1 231048Z 03012KT 11/11 A3009 RMK A01 T01090109  RH  100%=      5-min Rain = 0
KPA1 231049Z 03012KT 11/11 A3009 RMK A01 T01090109  RH  100%=      5-min Rain = 0
KPA1 231050Z 03012KT 11/11 A3009 RMK A01 T01090109  RH  100%=      5-min Rain = 0
KPA1 231051Z 03012KT 11/11 A3009 RMK A01 T01090109  RH  100%=      5-min Rain = 0
KPA1 231052Z 03010KT 11/11 A3009 RMK A01 T01090109  RH  100%=      5-min Rain = 0
KPA1 231053Z 03012KT 11/11 A3009 RMK A01 T01090109  RH  100%=      5-min Rain = 0.01
KPA1 231054Z 02012KT 11/11 A3009 RMK A01 T01090109  RH  100%=      5-min Rain = 0
KPA1 231055Z 03010KT 11/11 A3009 RMK A01 T01090109  RH  100%=      5-min Rain = 0
KPA1 231056Z 03011KT 11/11 A3009 RMK A01 T01090108  RH  100%=      5-min Rain = 0
KPA1 231057Z 02009KT 11/11 A3009 RMK A01 T01090109  RH  100%=      5-min Rain = 0
KPA1 231058Z 02010KT 11/11 A3009 RMK A01 T01090109  RH  100%=      5-min Rain = 0.01
KPA1 231059Z 03012KT 11/11 A3009 RMK A01 T01090108  RH  100%=      5-min Rain = 0
KPA1 231100Z 03013KT 11/11 A3009 RMK A01 T01090108  RH  099%=      5-min Rain = 0
KPA1 231101Z 03012KT 11/11 A3009 RMK A01 T01080107  RH  099%=      5-min Rain = 0
KPA1 231102Z 03013KT 11/11 A3009 RMK A01 T01080107  RH  099%=      5-min Rain = 0
KPA1 231103Z 02013KT 11/11 A3009 RMK A01 T01080107  RH  099%=      5-min Rain = 0
KPA1 231104Z 02013KT 11/11 A3009 RMK A01 T01080107  RH  099%=      5-min Rain = 0
KPA1 231105Z 03015KT 11/11 A3009 RMK A01 T01070106  RH  099%=      5-min Rain = 0.01
KPA1 231106Z 03013KT 11/11 A3009 RMK A01 T01060105  RH  099%=      5-min Rain = 0
KPA1 231107Z 02014KT 11/11 A3009 RMK A01 T01060105  RH  099%=      5-min Rain = 0
KPA1 231108Z 03012KT 11/10 A3009 RMK A01 T01050104  RH  099%=      5-min Rain = 0
KPA1 231109Z 02014KT 11/10 A3009 RMK A01 T01050104  RH  099%=      5-min Rain = 0
KPA1 231110Z 02013KT 11/10 A3009 RMK A01 T01050103  RH  099%=      5-min Rain = 0
KPA1 231111Z 03015KT 10/10 A3009 RMK A01 T01040103  RH  099%=      5-min Rain = 0
KPA1 231112Z 03016KT 10/10 A3009 RMK A01 T01040102  RH  099%=      5-min Rain = 0
KPA1 231113Z 03016KT 10/10 A3009 RMK A01 T01040102  RH  099%=      5-min Rain = 0
KPA1 231114Z 03014KT 10/10 A3009 RMK A01 T01040102  RH  099%=      5-min Rain = 0.01
KPA1 231115Z 03012KT 10/10 A3009 RMK A01 T01040102  RH  099%=      5-min Rain = 0
KPA1 231116Z 03014KT 10/10 A3009 RMK A01 T01030102  RH  099%=      5-min Rain = 0
KPA1 231117Z 03011KT 10/10 A3009 RMK A01 T01030102  RH  099%=      5-min Rain = 0
KPA1 231118Z 02012KT 10/10 A3009 RMK A01 T01030102  RH  099%=      5-min Rain = 0
KPA1 231119Z 02011KT 10/10 A3009 RMK A01 T01030102  RH  099%=      5-min Rain = 0
KPA1 231120Z 02011KT 10/10 A3009 RMK A01 T01030102  RH  099%=      5-min Rain = 0.01
KPA1 231121Z 02012KT 10/10 A3009 RMK A01 T01030102  RH  099%=      5-min Rain = 0
KPA1 231122Z 02013KT 10/10 A3009 RMK A01 T01030101  RH  099%=      5-min Rain = 0
KPA1 231123Z 02012KT 10/10 A3009 RMK A01 T01020100  RH  099%=      5-min Rain = 0.01
KPA1 231124Z 02011KT 10/10 A3009 RMK A01 T01020100  RH  099%=      5-min Rain = 0
KPA1 231125Z 02011G16KT 10/10 A3009 RMK A01 T01020100  RH  099%=      5-min Rain = 0
KPA1 231126Z 02013KT 10/10 A3009 RMK A01 T01020100  RH  099%=      5-min Rain = 0
KPA1 231127Z 02012KT 10/10 A3009 RMK A01 T01010100  RH  099%=      5-min Rain = 0.01
KPA1 231128Z 02013KT 10/10 A3009 RMK A01 T01010099  RH  099%=      5-min Rain = 0
KPA1 231129Z 02013KT 10/10 A3009 RMK A01 T01010099  RH  099%=      5-min Rain = 0
KPA1 231130Z 01014KT 10/10 A3009 RMK A01 T01010099  RH  099%=      5-min Rain = 0
KPA1 231131Z 02011KT 10/10 A3009 RMK A01 T01010099  RH  099%=      5-min Rain = 0
KPA1 231132Z 02012KT 10/10 A3009 RMK A01 T01000098  RH  099%=      5-min Rain = 0.01
KPA1 231133Z 02013KT 10/10 A3009 RMK A01 T01010099  RH  099%=      5-min Rain = 0
KPA1 231134Z 02015KT 10/10 A3009 RMK A01 T01010099  RH  099%=      5-min Rain = 0
KPA1 231135Z 02012KT 10/10 A3009 RMK A01 T01010099  RH  099%=      5-min Rain = 0
KPA1 231136Z 02010KT 10/10 A3009 RMK A01 T01010099  RH  099%=      5-min Rain = 0
KPA1 231137Z 02011KT 10/10 A3009 RMK A01 T01010099  RH  099%=      5-min Rain = 0
KPA1 231138Z 02014KT 10/10 A3009 RMK A01 T01010099  RH  099%=      5-min Rain = 0.01
KPA1 231139Z 02011KT 10/10 A3009 RMK A01 T01010099  RH  099%=      5-min Rain = 0
KPA1 231140Z 02010KT 10/10 A3009 RMK A01 T01010099  RH  099%=      5-min Rain = 0
KPA1 231141Z 02011KT 10/10 A3009 RMK A01 T01010099  RH  099%=      5-min Rain = 0
KPA1 231142Z 01012KT 10/10 A3009 RMK A01 T01010099  RH  099%=      5-min Rain = 0
KPA1 231143Z 01011KT 10/10 A3009 RMK A01 T01000098  RH  099%=      5-min Rain = 0
KPA1 231144Z 02012KT 10/10 A3009 RMK A01 T01010099  RH  099%=      5-min Rain = 0.01
KPA1 231145Z 02010KT 10/10 A3009 RMK A01 T01010098  RH  099%=      5-min Rain = 0
KPA1 231146Z 01011KT 10/10 A3009 RMK A01 T01010099  RH  099%=      5-min Rain = 0
KPA1 231147Z 01011KT 10/10 A3009 RMK A01 T01010099  RH  099%=      5-min Rain = 0
KPA1 231148Z 01011KT 10/10 A3009 RMK A01 T01010098  RH  099%=      5-min Rain = 0
KPA1 231149Z 02011KT 10/10 A301 RMK A01 T01000098  RH  099%=      5-min Rain = 0
KPA1 231150Z 01011KT 10/10 A301 RMK A01 T01000098  RH  099%=      5-min Rain = 0
KPA1 231151Z 01013KT 10/10 A301 RMK A01 T01010099  RH  099%=      5-min Rain = 0
KPA1 231152Z 01013KT 10/10 A301 RMK A01 T01010099  RH  099%=      5-min Rain = 0.01
KPA1 231153Z 01014KT 10/10 A301 RMK A01 T01010098  RH  099%=      5-min Rain = 0
KPA1 231154Z 01012KT 10/10 A301 RMK A01 T01010098  RH  099%=      5-min Rain = 0
KPA1 231155Z 01011KT 10/10 A301 RMK A01 T01010099  RH  099%=      5-min Rain = 0
KPA1 231156Z 01012KT 10/10 A301 RMK A01 T01000098  RH  099%=      5-min Rain = 0
KPA1 231157Z 01012KT 10/10 A301 RMK A01 T01000098  RH  099%=      5-min Rain = 0
KPA1 231158Z 01010KT 10/10 A301 RMK A01 T01010099  RH  099%=      5-min Rain = 0
KPA1 231159Z 01010KT 10/10 A3011 RMK A01 T01000098  RH  099%=      5-min Rain = 0
KPA1 231200Z 01010KT 10/10 A3011 RMK A01 T01010098  RH  099%=      5-min Rain = 0
KPA1 231201Z 01010KT 10/10 A3011 RMK A01 T01010098  RH  099%=      5-min Rain = 0
KPA1 231202Z 01009KT 10/10 A3011 RMK A01 T01010099  RH  099%=      5-min Rain = 0
KPA1 231203Z 01009KT 10/10 A3011 RMK A01 T01010099  RH  099%=      5-min Rain = 0
KPA1 231204Z 01010KT 10/10 A3011 RMK A01 T01000098  RH  099%=      5-min Rain = 0
KPA1 231205Z 00010KT 10/10 A3011 RMK A01 T01010099  RH  099%=      5-min Rain = 0
KPA1 231206Z 01010KT 10/10 A3011 RMK A01 T01010099  RH  099%=      5-min Rain = 0.01
KPA1 231207Z 36010KT 10/10 A3011 RMK A01 T01010099  RH  099%=      5-min Rain = 0
KPA1 231208Z 00009KT 10/10 A3011 RMK A01 T01000098  RH  099%=      5-min Rain = 0
KPA1 231209Z 36010KT 10/10 A3011 RMK A01 T01010099  RH  099%=      5-min Rain = 0
KPA1 231210Z 36010KT 10/10 A3011 RMK A01 T01010099  RH  099%=      5-min Rain = 0
KPA1 231211Z 01008KT 10/10 A3012 RMK A01 T01010099  RH  099%=      5-min Rain = 0
KPA1 231212Z 36009KT 10/10 A3012 RMK A01 T01010099  RH  099%=      5-min Rain = 0
KPA1 231213Z 00009KT 10/10 A3012 RMK A01 T01010099  RH  099%=      5-min Rain = 0
KPA1 231214Z 00010KT 10/10 A3012 RMK A01 T01000099  RH  099%=      5-min Rain = 0
KPA1 231215Z 00009KT 10/10 A3012 RMK A01 T01010099  RH  099%=      5-min Rain = 0
KPA1 231216Z 00009KT 10/10 A3012 RMK A01 T01000098  RH  099%=      5-min Rain = 0
KPA1 231217Z 00010KT 10/10 A3012 RMK A01 T01010099  RH  099%=      5-min Rain = 0
KPA1 231218Z 36007KT 10/10 A3012 RMK A01 T01010099  RH  099%=      5-min Rain = 0
KPA1 231219Z 35008KT 10/10 A3012 RMK A01 T01010099  RH  099%=      5-min Rain = 0
KPA1 231220Z 36009KT 10/10 A3012 RMK A01 T01010099  RH  099%=      5-min Rain = 0
KPA1 231221Z 00010KT 10/10 A3012 RMK A01 T01000099  RH  099%=      5-min Rain = 0
KPA1 231222Z 00007KT 10/10 A3013 RMK A01 T01000099  RH  099%=      5-min Rain = 0.01
KPA1 231223Z 36009KT 10/10 A3013 RMK A01 T01010099  RH  099%=      5-min Rain = 0
KPA1 231224Z 00009KT 10/10 A3013 RMK A01 T01010099  RH  099%=      5-min Rain = 0
KPA1 231225Z 01009KT 10/10 A3013 RMK A01 T01010099  RH  099%=      5-min Rain = 0
KPA1 231226Z 01010KT 10/10 A3013 RMK A01 T01000099  RH  099%=      5-min Rain = 0
KPA1 231227Z 00009KT 10/10 A3013 RMK A01 T01010099  RH  099%=      5-min Rain = 0.01
KPA1 231228Z 00009KT 10/10 A3013 RMK A01 T01000099  RH  099%=      5-min Rain = 0
KPA1 231229Z 36008KT 10/10 A3013 RMK A01 T01010099  RH  099%=      5-min Rain = 0
KPA1 231230Z 36008KT 10/10 A3013 RMK A01 T01000099  RH  099%=      5-min Rain = 0.01
KPA1 231231Z 36009KT 10/10 A3013 RMK A01 T01000099  RH  099%=      5-min Rain = 0
KPA1 231232Z 36009KT 10/10 A3013 RMK A01 T01000099  RH  099%=      5-min Rain = 0
KPA1 231233Z 00008KT 10/10 A3013 RMK A01 T01010099  RH  099%=      5-min Rain = 0
KPA1 231234Z 01009KT 10/10 A3013 RMK A01 T01010099  RH  099%=      5-min Rain = 0.01
KPA1 231235Z 00010KT 10/10 A3013 RMK A01 T01010099  RH  099%=      5-min Rain = 0
KPA1 231236Z 00009KT 10/10 A3013 RMK A01 T01000099  RH  099%=      5-min Rain = 0
KPA1 231237Z 36011KT 10/10 A3013 RMK A01 T01000099  RH  099%=      5-min Rain = 0.01
KPA1 231238Z 00010KT 10/10 A3013 RMK A01 T01000098  RH  099%=      5-min Rain = 0
KPA1 231239Z 01009KT 10/10 A3013 RMK A01 T01000098  RH  099%=      5-min Rain = 0.01
KPA1 231240Z 36010KT 10/10 A3013 RMK A01 T01000098  RH  099%=      5-min Rain = 0
KPA1 231241Z 01012KT 10/10 A3013 RMK A01 T01000098  RH  099%=      5-min Rain = 0
KPA1 231242Z 01012KT 10/10 A3013 RMK A01 T01000098  RH  099%=      5-min Rain = 0.01
KPA1 231243Z 01010KT 10/10 A3013 RMK A01 T01000098  RH  099%=      5-min Rain = 0
KPA1 231244Z 01009KT 10/10 A3013 RMK A01 T01000098  RH  099%=      5-min Rain = 0
KPA1 231245Z 01011KT 10/10 A3013 RMK A01 T01000099  RH  099%=      5-min Rain = 0.01
KPA1 231246Z 00010KT 10/10 A3013 RMK A01 T01000099  RH  099%=      5-min Rain = 0
KPA1 231247Z 01009KT 10/10 A3013 RMK A01 T01000098  RH  099%=      5-min Rain = 0
KPA1 231248Z 01009KT 10/10 A3013 RMK A01 T01000098  RH  099%=      5-min Rain = 0.01
KPA1 231249Z 01009KT 10/10 A3013 RMK A01 T01000099  RH  099%=      5-min Rain = 0
KPA1 231250Z 00011KT 10/10 A3013 RMK A01 T01000099  RH  099%=      5-min Rain = 0
KPA1 231251Z 36011KT 10/10 A3013 RMK A01 T01000098  RH  099%=      5-min Rain = 0
KPA1 231252Z 00009KT 10/10 A3013 RMK A01 T00990098  RH  099%=      5-min Rain = 0.01
KPA1 231253Z 01010KT 10/10 A3013 RMK A01 T00990098  RH  099%=      5-min Rain = 0
KPA1 231254Z 01012KT 10/10 A3013 RMK A01 T00990098  RH  099%=      5-min Rain = 0
KPA1 231255Z 01013KT 10/10 A3013 RMK A01 T00990098  RH  099%=      5-min Rain = 0
KPA1 231256Z 01011KT 10/10 A3013 RMK A01 T00990097  RH  099%=      5-min Rain = 0
KPA1 231257Z 01010KT 10/10 A3013 RMK A01 T00990097  RH  099%=      5-min Rain = 0.01
KPA1 231258Z 01012KT 10/10 A3013 RMK A01 T00990097  RH  099%=      5-min Rain = 0
KPA1 231259Z 01016KT 10/10 A3013 RMK A01 T00980097  RH  099%=      5-min Rain = 0
KPA1 231300Z 01016KT 10/10 A3013 RMK A01 T00980096  RH  099%=      5-min Rain = 0
KPA1 231301Z 01017KT 10/10 A3013 RMK A01 T00970095  RH  099%=      5-min Rain = 0
KPA1 231302Z 02018KT 10/09 A3013 RMK A01 T00970094  RH  099%=      5-min Rain = 0.01
KPA1 231303Z 02017KT 10/09 A3013 RMK A01 T00960093  RH  098%=      5-min Rain = 0
KPA1 231304Z 02014KT 10/09 A3013 RMK A01 T00950092  RH  098%=      5-min Rain = 0
KPA1 231305Z 02015KT 10/09 A3013 RMK A01 T00950092  RH  098%=      5-min Rain = 0
KPA1 231306Z 02015KT 10/09 A3013 RMK A01 T00950091  RH  098%=      5-min Rain = 0
KPA1 231307Z 02017KT 09/09 A3013 RMK A01 T00940091  RH  098%=      5-min Rain = 0
KPA1 231308Z 02017KT 09/09 A3013 RMK A01 T00940090  RH  097%=      5-min Rain = 0
KPA1 231309Z 02014KT 09/09 A3013 RMK A01 T00940090  RH  097%=      5-min Rain = 0
KPA1 231310Z 02015KT 09/09 A3013 RMK A01 T00940089  RH  097%=      5-min Rain = 0.01
KPA1 231311Z 01015KT 09/09 A3013 RMK A01 T00940089  RH  097%=      5-min Rain = 0
KPA1 231312Z 02013G19KT 09/09 A3013 RMK A01 T00940089  RH  097%=      5-min Rain = 0
KPA1 231313Z 02018KT 09/09 A3013 RMK A01 T00940089  RH  097%=      5-min Rain = 0
KPA1 231314Z 02018KT 09/09 A3013 RMK A01 T00940089  RH  097%=      5-min Rain = 0
KPA1 231315Z 02015KT 09/09 A3013 RMK A01 T00940089  RH  097%=      5-min Rain = 0
KPA1 231316Z 03016KT 09/09 A3013 RMK A01 T00940088  RH  096%=      5-min Rain = 0
KPA1 231317Z 02014KT 09/09 A3013 RMK A01 T00940089  RH  096%=      5-min Rain = 0
KPA1 231318Z 02015KT 09/09 A3013 RMK A01 T00940088  RH  096%=      5-min Rain = 0
KPA1 231319Z 02015KT 09/09 A3013 RMK A01 T00940088  RH  096%=      5-min Rain = 0
KPA1 231320Z 02015KT 09/09 A3013 RMK A01 T00940088  RH  096%=      5-min Rain = 0
KPA1 231321Z 02014KT 09/09 A3013 RMK A01 T00940088  RH  096%=      5-min Rain = 0
KPA1 231322Z 02014KT 09/09 A3014 RMK A01 T00940088  RH  096%=      5-min Rain = 0
KPA1 231323Z 02015KT 09/09 A3014 RMK A01 T00940088  RH  096%=      5-min Rain = 0
KPA1 231324Z 03014KT 09/09 A3014 RMK A01 T00940089  RH  096%=      5-min Rain = 0
KPA1 231325Z 02013KT 10/09 A3014 RMK A01 T00950089  RH  096%=      5-min Rain = 0
KPA1 231326Z 02013KT 10/09 A3014 RMK A01 T00950089  RH  096%=      5-min Rain = 0.01
KPA1 231327Z 02012KT 10/09 A3014 RMK A01 T00950089  RH  096%=      5-min Rain = 0
KPA1 231328Z 02013KT 10/09 A3014 RMK A01 T00950089  RH  096%=      5-min Rain = 0
KPA1 231329Z 02013KT 10/09 A3014 RMK A01 T00950089  RH  097%=      5-min Rain = 0
KPA1 231330Z 02012KT 10/09 A3014 RMK A01 T00950090  RH  097%=      5-min Rain = 0
KPA1 231331Z 02011KT 10/09 A3014 RMK A01 T00950090  RH  097%=      5-min Rain = 0
KPA1 231332Z 02012KT 10/09 A3014 RMK A01 T00950090  RH  097%=      5-min Rain = 0
KPA1 231333Z 02011KT 09/09 A3014 RMK A01 T00940090  RH  097%=      5-min Rain = 0
KPA1 231334Z 02010KT 10/09 A3014 RMK A01 T00950090  RH  097%=      5-min Rain = 0
KPA1 231335Z 02012KT 09/09 A3014 RMK A01 T00940090  RH  097%=      5-min Rain = 0
KPA1 231336Z 02012KT 10/09 A3014 RMK A01 T00950090  RH  097%=      5-min Rain = 0
KPA1 231337Z 02012KT 10/09 A3014 RMK A01 T00950090  RH  097%=      5-min Rain = 0
KPA1 231338Z 02013KT 10/09 A3014 RMK A01 T00950090  RH  097%=      5-min Rain = 0
KPA1 231339Z 02011KT 10/09 A3014 RMK A01 T00950090  RH  097%=      5-min Rain = 0
KPA1 231340Z 01009KT 10/09 A3014 RMK A01 T00950090  RH  097%=      5-min Rain = 0
KPA1 231341Z 01013KT 09/09 A3014 RMK A01 T00940090  RH  097%=      5-min Rain = 0
KPA1 231342Z 02014KT 09/09 A3014 RMK A01 T00940090  RH  097%=      5-min Rain = 0
KPA1 231343Z 02013KT 09/09 A3014 RMK A01 T00940090  RH  097%=      5-min Rain = 0
KPA1 231344Z 01012KT 09/09 A3014 RMK A01 T00930089  RH  097%=      5-min Rain = 0
KPA1 231345Z 01012KT 09/09 A3014 RMK A01 T00940089  RH  097%=      5-min Rain = 0
KPA1 231346Z 01015KT 09/09 A3014 RMK A01 T00940090  RH  097%=      5-min Rain = 0
KPA1 231347Z 02015KT 09/09 A3014 RMK A01 T00930089  RH  097%=      5-min Rain = 0
KPA1 231348Z 01016KT 09/09 A3014 RMK A01 T00930089  RH  097%=      5-min Rain = 0
KPA1 231349Z 01015KT 09/09 A3014 RMK A01 T00930089  RH  097%=      5-min Rain = 0
KPA1 231350Z 01014KT 09/09 A3014 RMK A01 T00930089  RH  097%=      5-min Rain = 0
KPA1 231351Z 01016KT 09/09 A3014 RMK A01 T00930088  RH  097%=      5-min Rain = 0
KPA1 231352Z 02014KT 09/09 A3014 RMK A01 T00930088  RH  097%=      5-min Rain = 0
KPA1 231353Z 02012KT 09/09 A3014 RMK A01 T00930088  RH  097%=      5-min Rain = 0
KPA1 231354Z 02015KT 09/09 A3014 RMK A01 T00940088  RH  096%=      5-min Rain = 0
KPA1 231355Z 02015KT 09/09 A3014 RMK A01 T00930088  RH  096%=      5-min Rain = 0
KPA1 231356Z 02012KT 09/09 A3014 RMK A01 T00940088  RH  096%=      5-min Rain = 0
KPA1 231357Z 02013KT 09/09 A3014 RMK A01 T00940089  RH  096%=      5-min Rain = 0
KPA1 231358Z 02014KT 09/09 A3014 RMK A01 T00940088  RH  096%=      5-min Rain = 0
KPA1 231359Z 02015KT 09/09 A3014 RMK A01 T00940088  RH  096%=      5-min Rain = 0
KPA1 231400Z 02013KT 09/09 A3014 RMK A01 T00940088  RH  096%=      5-min Rain = 0
KPA1 231401Z 02012KT 09/09 A3014 RMK A01 T00940089  RH  096%=      5-min Rain = 0
KPA1 231402Z 02013KT 09/09 A3014 RMK A01 T00940089  RH  096%=      5-min Rain = 0
KPA1 231403Z 02014KT 09/09 A3014 RMK A01 T00940088  RH  096%=      5-min Rain = 0
KPA1 231404Z 01013KT 09/09 A3014 RMK A01 T00940088  RH  096%=      5-min Rain = 0
KPA1 231405Z 02013KT 09/09 A3014 RMK A01 T00940088  RH  096%=      5-min Rain = 0
KPA1 231406Z 02011KT 09/09 A3014 RMK A01 T00940088  RH  096%=      5-min Rain = 0
KPA1 231407Z 02014KT 09/09 A3014 RMK A01 T00940088  RH  096%=      5-min Rain = 0
KPA1 231408Z 01012KT 09/09 A3015 RMK A01 T00940088  RH  096%=      5-min Rain = 0
KPA1 231409Z 02014KT 09/09 A3015 RMK A01 T00940089  RH  096%=      5-min Rain = 0
KPA1 231410Z 01011KT 10/09 A3015 RMK A01 T00950089  RH  096%=      5-min Rain = 0
KPA1 231411Z 01010KT 10/09 A3015 RMK A01 T00950089  RH  097%=      5-min Rain = 0
KPA1 231412Z 01013KT 09/09 A3014 RMK A01 T00940089  RH  097%=      5-min Rain = 0
KPA1 231413Z 01013KT 09/09 A3014 RMK A01 T00940089  RH  097%=      5-min Rain = 0
KPA1 231414Z 01011KT 09/09 A3014 RMK A01 T00940089  RH  097%=      5-min Rain = 0
KPA1 231415Z 01013KT 09/09 A3014 RMK A01 T00940089  RH  097%=      5-min Rain = 0
KPA1 231416Z 01012KT 09/09 A3014 RMK A01 T00940089  RH  097%=      5-min Rain = 0
KPA1 231417Z 01013KT 09/09 A3014 RMK A01 T00940089  RH  097%=      5-min Rain = 0
KPA1 231418Z 00013KT 09/09 A3014 RMK A01 T00940089  RH  097%=      5-min Rain = 0
KPA1 231419Z 01013KT 09/09 A3014 RMK A01 T00940089  RH  097%=      5-min Rain = 0
KPA1 231420Z 01011KT 09/09 A3014 RMK A01 T00940089  RH  096%=      5-min Rain = 0
KPA1 231421Z 01012KT 09/09 A3014 RMK A01 T00940089  RH  097%=      5-min Rain = 0
KPA1 231422Z 01013KT 09/09 A3014 RMK A01 T00940089  RH  097%=      5-min Rain = 0
KPA1 231423Z 01014KT 09/09 A3014 RMK A01 T00940089  RH  097%=      5-min Rain = 0
KPA1 231424Z 01014KT 09/09 A3014 RMK A01 T00940088  RH  096%=      5-min Rain = 0
KPA1 231425Z 02015KT 09/09 A3014 RMK A01 T00930087  RH  096%=      5-min Rain = 0
KPA1 231426Z 01015KT 09/09 A3015 RMK A01 T00930087  RH  096%=      5-min Rain = 0
KPA1 231427Z 01013KT 09/09 A3015 RMK A01 T00920087  RH  096%=      5-min Rain = 0
KPA1 231428Z 02015KT 09/09 A3015 RMK A01 T00920087  RH  096%=      5-min Rain = 0
KPA1 231429Z 02012KT 09/09 A3015 RMK A01 T00920087  RH  096%=      5-min Rain = 0
KPA1 231430Z 01014KT 09/09 A3015 RMK A01 T00920087  RH  096%=      5-min Rain = 0
KPA1 231431Z 01013KT 09/09 A3015 RMK A01 T00920086  RH  096%=      5-min Rain = 0
KPA1 231432Z 01013KT 09/09 A3015 RMK A01 T00920087  RH  096%=      5-min Rain = 0
KPA1 231433Z 00013KT 09/09 A3015 RMK A01 T00910086  RH  096%=      5-min Rain = 0
KPA1 231434Z 01013KT 09/09 A3015 RMK A01 T00910086  RH  096%=      5-min Rain = 0
KPA1 231435Z 01014KT 09/09 A3015 RMK A01 T00910085  RH  097%=      5-min Rain = 0
KPA1 231436Z 01013KT 09/09 A3015 RMK A01 T00910085  RH  096%=      5-min Rain = 0
KPA1 231437Z 01013KT 09/09 A3015 RMK A01 T00900085  RH  097%=      5-min Rain = 0
KPA1 231438Z 01014KT 09/09 A3015 RMK A01 T00910086  RH  097%=      5-min Rain = 0
KPA1 231439Z 01014KT 09/09 A3015 RMK A01 T00900085  RH  097%=      5-min Rain = 0
KPA1 231440Z 02014KT 09/09 A3015 RMK A01 T00900085  RH  097%=      5-min Rain = 0
KPA1 231441Z 02013KT 09/09 A3015 RMK A01 T00900085  RH  097%=      5-min Rain = 0
KPA1 231442Z 01014KT 09/09 A3015 RMK A01 T00900085  RH  097%=      5-min Rain = 0
KPA1 231443Z 02014KT 09/09 A3014 RMK A01 T00900085  RH  097%=      5-min Rain = 0
KPA1 231444Z 02014KT 09/09 A3014 RMK A01 T00900085  RH  097%=      5-min Rain = 0
KPA1 231445Z 02012KT 09/09 A3014 RMK A01 T00890085  RH  097%=      5-min Rain = 0
KPA1 231446Z 02012KT 09/09 A3014 RMK A01 T00900085  RH  097%=      5-min Rain = 0
KPA1 231447Z 02013KT 09/09 A3014 RMK A01 T00900085  RH  097%=      5-min Rain = 0
KPA1 231448Z 02014KT 09/09 A3014 RMK A01 T00900085  RH  097%=      5-min Rain = 0
KPA1 231449Z 02017KT 09/09 A3015 RMK A01 T00890085  RH  097%=      5-min Rain = 0
KPA1 231450Z 02015KT 09/09 A3015 RMK A01 T00900085  RH  097%=      5-min Rain = 0
KPA1 231451Z 01014KT 09/09 A3014 RMK A01 T00900085  RH  097%=      5-min Rain = 0
KPA1 231452Z 02016KT 09/09 A3014 RMK A01 T00900085  RH  097%=      5-min Rain = 0
KPA1 231453Z 01015KT 09/09 A3015 RMK A01 T00900085  RH  097%=      5-min Rain = 0
KPA1 231454Z 01014KT 09/09 A3015 RMK A01 T00900085  RH  097%=      5-min Rain = 0
KPA1 231455Z 01013KT 09/09 A3015 RMK A01 T00900085  RH  097%=      5-min Rain = 0
KPA1 231456Z 01014KT 09/09 A3015 RMK A01 T00900085  RH  097%=      5-min Rain = 0
KPA1 231457Z 01013KT 09/09 A3015 RMK A01 T00900085  RH  097%=      5-min Rain = 0
KPA1 231458Z 02012KT 09/09 A3015 RMK A01 T00900086  RH  097%=      5-min Rain = 0
KPA1 231459Z 02013KT 09/09 A3015 RMK A01 T00900086  RH  097%=      5-min Rain = 0
KPA1 231500Z 02014KT 09/09 A3015 RMK A01 T00900086  RH  097%=      5-min Rain = 0
KPA1 231501Z 02015KT 09/09 A3015 RMK A01 T00900085  RH  097%=      5-min Rain = 0
KPA1 231502Z 01012KT 09/09 A3014 RMK A01 T00900085  RH  097%=      5-min Rain = 0
KPA1 231503Z 01013G18KT 09/09 A3014 RMK A01 T00900086  RH  097%=      5-min Rain = 0
KPA1 231504Z 01015KT 09/09 A3014 RMK A01 T00900086  RH  097%=      5-min Rain = 0
KPA1 231505Z 01015KT 09/09 A3014 RMK A01 T00910086  RH  097%=      5-min Rain = 0
KPA1 231506Z 02017KT 09/09 A3014 RMK A01 T00900086  RH  097%=      5-min Rain = 0
KPA1 231507Z 02016G22KT 09/09 A3014 RMK A01 T00900086  RH  097%=      5-min Rain = 0
KPA1 231508Z 01017G22KT 09/09 A3014 RMK A01 T00900086  RH  097%=      5-min Rain = 0
KPA1 231509Z 01015KT 09/09 A3014 RMK A01 T00910086  RH  097%=      5-min Rain = 0
KPA1 231510Z 01015KT 09/09 A3014 RMK A01 T00910086  RH  097%=      5-min Rain = 0
KPA1 231511Z 01017KT 09/09 A3013 RMK A01 T00910086  RH  097%=      5-min Rain = 0
KPA1 231512Z 02016G21KT 09/09 A3013 RMK A01 T00910086  RH  096%=      5-min Rain = 0
KPA1 231513Z 02016G21KT 09/09 A3013 RMK A01 T00920086  RH  096%=      5-min Rain = 0
KPA1 231514Z 02015KT 09/09 A3013 RMK A01 T00930087  RH  096%=      5-min Rain = 0
KPA1 231515Z 01018KT 09/09 A3013 RMK A01 T00930087  RH  096%=      5-min Rain = 0
KPA1 231516Z 01020KT 09/09 A3013 RMK A01 T00930086  RH  096%=      5-min Rain = 0
KPA1 231517Z 02015G20KT 09/09 A3013 RMK A01 T00940088  RH  096%=      5-min Rain = 0
KPA1 231518Z 02018KT 10/09 A3012 RMK A01 T00960089  RH  096%=      5-min Rain = 0
KPA1 231519Z 02019KT 10/09 A3012 RMK A01 T00960088  RH  095%=      5-min Rain = 0
KPA1 231520Z 02020KT 10/09 A3012 RMK A01 T00960087  RH  095%=      5-min Rain = 0
KPA1 231521Z 02019KT 10/09 A3012 RMK A01 T00950087  RH  094%=      5-min Rain = 0
KPA1 231522Z 02016KT 10/09 A3012 RMK A01 T00960088  RH  095%=      5-min Rain = 0
KPA1 231523Z 02020KT 10/09 A3011 RMK A01 T00980089  RH  094%=      5-min Rain = 0
KPA1 231524Z 02020KT 10/09 A3011 RMK A01 T00980088  RH  093%=      5-min Rain = 0
KPA1 231525Z 02021KT 10/09 A3011 RMK A01 T00980088  RH  093%=      5-min Rain = 0
KPA1 231526Z 03020G25KT 10/09 A3011 RMK A01 T00980088  RH  094%=      5-min Rain = 0
KPA1 231527Z 02024KT 10/09 A3011 RMK A01 T00990088  RH  093%=      5-min Rain = 0
KPA1 231528Z 02020KT 10/09 A3011 RMK A01 T00970086  RH  093%=      5-min Rain = 0
KPA1 231529Z 03017KT 10/09 A3011 RMK A01 T00980088  RH  094%=      5-min Rain = 0
KPA1 231530Z 02023KT 10/09 A3011 RMK A01 T00980087  RH  093%=      5-min Rain = 0
KPA1 231531Z 02021KT 10/09 A3012 RMK A01 T00970086  RH  093%=      5-min Rain = 0
KPA1 231532Z 02018KT 10/09 A3012 RMK A01 T00970087  RH  094%=      5-min Rain = 0
KPA1 231533Z 02019KT 10/09 A3012 RMK A01 T00970087  RH  094%=      5-min Rain = 0
KPA1 231534Z 02015KT 10/09 A3012 RMK A01 T00960087  RH  094%=      5-min Rain = 0
KPA1 231535Z 02016G22KT 10/09 A3013 RMK A01 T00980090  RH  095%=      5-min Rain = 0
KPA1 231536Z 02017G22KT 10/09 A3013 RMK A01 T00970089  RH  094%=      5-min Rain = 0
KPA1 231537Z 03016KT 10/09 A3013 RMK A01 T00970088  RH  094%=      5-min Rain = 0
KPA1 231538Z 02015G21KT 10/09 A3013 RMK A01 T00970088  RH  094%=      5-min Rain = 0
KPA1 231539Z 03018KT 10/09 A3013 RMK A01 T00970088  RH  094%=      5-min Rain = 0
KPA1 231540Z 02016KT 10/09 A3013 RMK A01 T00970088  RH  094%=      5-min Rain = 0
KPA1 231541Z 02015KT 10/09 A3014 RMK A01 T00960088  RH  094%=      5-min Rain = 0
KPA1 231542Z 02014KT 10/09 A3014 RMK A01 T00970088  RH  095%=      5-min Rain = 0
KPA1 231543Z 02014KT 10/09 A3014 RMK A01 T00960088  RH  095%=      5-min Rain = 0
KPA1 231544Z 02014KT 10/09 A3014 RMK A01 T00960088  RH  095%=      5-min Rain = 0
KPA1 231545Z 03014KT 10/09 A3014 RMK A01 T00960088  RH  095%=      5-min Rain = 0
KPA1 231546Z 03014KT 10/09 A3014 RMK A01 T00960088  RH  095%=      5-min Rain = 0
KPA1 231547Z 03015KT 10/09 A3014 RMK A01 T00960088  RH  095%=      5-min Rain = 0
KPA1 231548Z 02011KT 10/09 A3015 RMK A01 T00970089  RH  095%=      5-min Rain = 0
KPA1 231549Z 02013KT 10/09 A3015 RMK A01 T00970090  RH  095%=      5-min Rain = 0
KPA1 231550Z 01013KT 10/09 A3015 RMK A01 T00970089  RH  095%=      5-min Rain = 0
KPA1 231551Z 02013KT 10/09 A3015 RMK A01 T00970089  RH  095%=      5-min Rain = 0
KPA1 231552Z 01014KT 10/09 A3015 RMK A01 T00960088  RH  095%=      5-min Rain = 0
KPA1 231553Z 02016KT 10/09 A3015 RMK A01 T00960088  RH  094%=      5-min Rain = 0
KPA1 231554Z 02015KT 10/09 A3015 RMK A01 T00960087  RH  094%=      5-min Rain = 0
KPA1 231555Z 02015KT 10/09 A3015 RMK A01 T00960087  RH  094%=      5-min Rain = 0
KPA1 231556Z 02013KT 10/09 A3015 RMK A01 T00970087  RH  094%=      5-min Rain = 0
KPA1 231557Z 02013KT 10/09 A3015 RMK A01 T00960088  RH  094%=      5-min Rain = 0
KPA1 231558Z 02015KT 10/09 A3015 RMK A01 T00970088  RH  094%=      5-min Rain = 0
KPA1 231559Z 02016KT 10/09 A3015 RMK A01 T00970088  RH  094%=      5-min Rain = 0
KPA1 231600Z 02015KT 10/09 A3015 RMK A01 T00970087  RH  094%=      5-min Rain = 0
KPA1 231601Z 02014KT 10/09 A3015 RMK A01 T00970088  RH  094%=      5-min Rain = 0
KPA1 231602Z 02013KT 10/09 A3015 RMK A01 T00970088  RH  094%=      5-min Rain = 0
KPA1 231603Z 01013KT 10/09 A3015 RMK A01 T00970088  RH  094%=      5-min Rain = 0
KPA1 231604Z 02012KT 10/09 A3015 RMK A01 T00970089  RH  095%=      5-min Rain = 0
KPA1 231605Z 01012KT 10/09 A3015 RMK A01 T00970089  RH  095%=      5-min Rain = 0
KPA1 231606Z 01012KT 10/09 A3015 RMK A01 T00970090  RH  095%=      5-min Rain = 0
KPA1 231607Z 01015KT 10/09 A3015 RMK A01 T00970089  RH  095%=      5-min Rain = 0
KPA1 231608Z 01013KT 10/09 A3015 RMK A01 T00970089  RH  095%=      5-min Rain = 0
KPA1 231609Z 02011KT 10/09 A3015 RMK A01 T00970089  RH  095%=      5-min Rain = 0
KPA1 231610Z 03013KT 10/09 A3015 RMK A01 T00970090  RH  095%=      5-min Rain = 0
KPA1 231611Z 03014KT 10/09 A3015 RMK A01 T00970089  RH  094%=      5-min Rain = 0
KPA1 231612Z 02013KT 10/09 A3015 RMK A01 T00970088  RH  094%=      5-min Rain = 0
KPA1 231613Z 01014KT 10/09 A3015 RMK A01 T00970088  RH  094%=      5-min Rain = 0
KPA1 231614Z 01014KT 10/09 A3015 RMK A01 T00970088  RH  094%=      5-min Rain = 0
KPA1 231615Z 01014KT 10/09 A3015 RMK A01 T00970087  RH  094%=      5-min Rain = 0
KPA1 231616Z 01013KT 10/09 A3015 RMK A01 T00960088  RH  095%=      5-min Rain = 0
KPA1 231617Z 02013KT 10/09 A3015 RMK A01 T00960089  RH  095%=      5-min Rain = 0
KPA1 231618Z 01014KT 10/09 A3015 RMK A01 T00960089  RH  095%=      5-min Rain = 0
KPA1 231619Z 00013KT 10/09 A3015 RMK A01 T00960089  RH  095%=      5-min Rain = 0
KPA1 231620Z 02013KT 10/09 A3015 RMK A01 T00960089  RH  095%=      5-min Rain = 0
KPA1 231621Z 01015KT 10/09 A3015 RMK A01 T00960088  RH  095%=      5-min Rain = 0
KPA1 231622Z 01016KT 10/09 A3015 RMK A01 T00950087  RH  095%=      5-min Rain = 0
KPA1 231623Z 01015KT 10/09 A3015 RMK A01 T00950087  RH  095%=      5-min Rain = 0
KPA1 231624Z 02014KT 09/09 A3015 RMK A01 T00940086  RH  095%=      5-min Rain = 0
KPA1 231625Z 02012KT 10/09 A3015 RMK A01 T00950088  RH  095%=      5-min Rain = 0
KPA1 231626Z 02011KT 10/09 A3015 RMK A01 T00960089  RH  095%=      5-min Rain = 0
KPA1 231627Z 03015KT 10/09 A3015 RMK A01 T00960089  RH  095%=      5-min Rain = 0
KPA1 231628Z 02014KT 10/09 A3015 RMK A01 T00960087  RH  094%=      5-min Rain = 0
KPA1 231629Z 02013KT 10/09 A3015 RMK A01 T00960087  RH  094%=      5-min Rain = 0
KPA1 231630Z 03010KT 10/09 A3015 RMK A01 T00960088  RH  095%=      5-min Rain = 0
KPA1 231631Z 02011KT 10/09 A3015 RMK A01 T00970089  RH  095%=      5-min Rain = 0
KPA1 231632Z 03011KT 10/09 A3015 RMK A01 T00970089  RH  095%=      5-min Rain = 0
KPA1 231633Z 03014KT 10/09 A3015 RMK A01 T00960089  RH  095%=      5-min Rain = 0
KPA1 231634Z 03012KT 10/09 A3015 RMK A01 T00960088  RH  095%=      5-min Rain = 0
KPA1 231635Z 03013KT 10/09 A3015 RMK A01 T00960089  RH  095%=      5-min Rain = 0
KPA1 231636Z 02013KT 10/09 A3015 RMK A01 T00950088  RH  096%=      5-min Rain = 0
KPA1 231637Z 01013KT 10/09 A3015 RMK A01 T00950088  RH  095%=      5-min Rain = 0
KPA1 231638Z 02010KT 10/09 A3015 RMK A01 T00950088  RH  096%=      5-min Rain = 0
KPA1 231639Z 02012KT 10/09 A3015 RMK A01 T00950089  RH  096%=      5-min Rain = 0
KPA1 231640Z 02012KT 10/09 A3015 RMK A01 T00950090  RH  096%=      5-min Rain = 0
KPA1 231641Z 02013KT 10/09 A3015 RMK A01 T00950089  RH  096%=      5-min Rain = 0
KPA1 231642Z 02012KT 10/09 A3015 RMK A01 T00950089  RH  096%=      5-min Rain = 0
KPA1 231643Z 02011KT 10/09 A3015 RMK A01 T00960090  RH  096%=      5-min Rain = 0
KPA1 231644Z 02014KT 10/09 A3015 RMK A01 T00960090  RH  096%=      5-min Rain = 0
KPA1 231645Z 03014KT 10/09 A3015 RMK A01 T00960089  RH  095%=      5-min Rain = 0
KPA1 231646Z 03015KT 10/09 A3015 RMK A01 T00960088  RH  095%=      5-min Rain = 0
KPA1 231647Z 03013KT 10/09 A3015 RMK A01 T00950088  RH  095%=      5-min Rain = 0
KPA1 231648Z 03013KT 10/09 A3015 RMK A01 T00950088  RH  095%=      5-min Rain = 0
KPA1 231649Z 03013KT 10/09 A3015 RMK A01 T00960089  RH  095%=      5-min Rain = 0
KPA1 231650Z 02014KT 10/09 A3015 RMK A01 T00960088  RH  095%=      5-min Rain = 0
KPA1 231651Z 02013KT 10/09 A3015 RMK A01 T00960089  RH  095%=      5-min Rain = 0
KPA1 231652Z 02014KT 10/09 A3015 RMK A01 T00960089  RH  095%=      5-min Rain = 0
KPA1 231653Z 02015KT 10/09 A3015 RMK A01 T00960088  RH  095%=      5-min Rain = 0
KPA1 231654Z 03015KT 10/09 A3015 RMK A01 T00960088  RH  095%=      5-min Rain = 0
KPA1 231655Z 02015KT 10/09 A3015 RMK A01 T00960088  RH  095%=      5-min Rain = 0
KPA1 231656Z 02013KT 10/09 A3015 RMK A01 T00980090  RH  095%=      5-min Rain = 0
KPA1 231657Z 03012KT 10/09 A3015 RMK A01 T00990092  RH  095%=      5-min Rain = 0
KPA1 231658Z 03014KT 10/09 A3015 RMK A01 T01000093  RH  095%=      5-min Rain = 0
KPA1 231659Z 03014KT 10/09 A3015 RMK A01 T01000091  RH  094%=      5-min Rain = 0
KPA1 231700Z 03013G18KT 10/09 A3015 RMK A01 T00990090  RH  094%=      5-min Rain = 0
KPA1 231701Z 02015KT 10/09 A3015 RMK A01 T00970088  RH  094%=      5-min Rain = 0
KPA1 231702Z 02014KT 10/09 A3015 RMK A01 T00960087  RH  094%=      5-min Rain = 0
KPA1 231703Z 02014KT 10/09 A3015 RMK A01 T00960085  RH  093%=      5-min Rain = 0
KPA1 231704Z 02014KT 10/09 A3015 RMK A01 T00960085  RH  093%=      5-min Rain = 0
KPA1 231705Z 02013KT 10/09 A3015 RMK A01 T00950085  RH  093%=      5-min Rain = 0
KPA1 231706Z 03012KT 10/09 A3015 RMK A01 T00960085  RH  093%=      5-min Rain = 0
KPA1 231707Z 03011KT 10/09 A3015 RMK A01 T00950085  RH  093%=      5-min Rain = 0
KPA1 231708Z 02013KT 10/09 A3015 RMK A01 T00960086  RH  094%=      5-min Rain = 0
KPA1 231709Z 02014KT 10/09 A3015 RMK A01 T00960085  RH  093%=      5-min Rain = 0
KPA1 231710Z 03013KT 10/08 A3015 RMK A01 T00960084  RH  093%=      5-min Rain = 0
KPA1 231711Z 02011KT 10/09 A3015 RMK A01 T00960085  RH  093%=      5-min Rain = 0
KPA1 231712Z 02009KT 10/09 A3015 RMK A01 T00960085  RH  093%=      5-min Rain = 0
KPA1 231713Z 02013KT 10/09 A3015 RMK A01 T00970085  RH  093%=      5-min Rain = 0
KPA1 231714Z 02012KT 10/08 A3015 RMK A01 T00970082  RH  091%=      5-min Rain = 0
KPA1 231715Z 02015KT 10/08 A3015 RMK A01 T00970080  RH  089%=      5-min Rain = 0
KPA1 231716Z 02013G19KT 10/08 A3015 RMK A01 T00970077  RH  088%=      5-min Rain = 0
KPA1 231717Z 02011KT 10/08 A3015 RMK A01 T00970077  RH  088%=      5-min Rain = 0
KPA1 231718Z 02013KT 10/08 A3015 RMK A01 T00970077  RH  088%=      5-min Rain = 0
KPA1 231719Z 02014KT 10/08 A3015 RMK A01 T00970075  RH  086%=      5-min Rain = 0
KPA1 231720Z 02015KT 10/08 A3015 RMK A01 T00970075  RH  086%=      5-min Rain = 0
KPA1 231721Z 02013KT 10/08 A3015 RMK A01 T00980075  RH  086%=      5-min Rain = 0
KPA1 231722Z 02013KT 10/08 A3015 RMK A01 T00980076  RH  086%=      5-min Rain = 0
KPA1 231723Z 02014KT 10/08 A3015 RMK A01 T00990076  RH  086%=      5-min Rain = 0
KPA1 231724Z 02013KT 10/08 A3015 RMK A01 T00990076  RH  086%=      5-min Rain = 0
KPA1 231725Z 02013KT 10/08 A3015 RMK A01 T00990076  RH  086%=      5-min Rain = 0
KPA1 231726Z 03013KT 10/08 A3015 RMK A01 T00990077  RH  087%=      5-min Rain = 0
KPA1 231727Z 02013KT 10/08 A3015 RMK A01 T00990078  RH  087%=      5-min Rain = 0
KPA1 231728Z 02012KT 10/08 A3015 RMK A01 T00980078  RH  087%=      5-min Rain = 0
KPA1 231729Z 03012KT 10/08 A3015 RMK A01 T00980079  RH  088%=      5-min Rain = 0
KPA1 231730Z 02014KT 10/08 A3015 RMK A01 T00980080  RH  088%=      5-min Rain = 0
KPA1 231731Z 02013KT 10/08 A3015 RMK A01 T00970080  RH  089%=      5-min Rain = 0
KPA1 231732Z 02013KT 10/08 A3015 RMK A01 T00970080  RH  089%=      5-min Rain = 0
KPA1 231733Z 02012KT 10/08 A3015 RMK A01 T00970080  RH  089%=      5-min Rain = 0
KPA1 231734Z 01011KT 10/08 A3015 RMK A01 T00980083  RH  091%=      5-min Rain = 0
KPA1 231735Z 01014KT 10/08 A3015 RMK A01 T00980082  RH  089%=      5-min Rain = 0
KPA1 231736Z 01013KT 10/08 A3015 RMK A01 T00990080  RH  088%=      5-min Rain = 0
KPA1 231737Z 02014KT 10/08 A3014 RMK A01 T00990080  RH  088%=      5-min Rain = 0
KPA1 231738Z 02012KT 10/08 A3014 RMK A01 T01000079  RH  087%=      5-min Rain = 0
KPA1 231739Z 03012KT 10/08 A3014 RMK A01 T01000078  RH  086%=      5-min Rain = 0
KPA1 231740Z 02013KT 10/08 A3014 RMK A01 T01000075  RH  084%=      5-min Rain = 0
KPA1 231741Z 02013KT 10/08 A3014 RMK A01 T01010075  RH  084%=      5-min Rain = 0
KPA1 231742Z 02012KT 10/07 A3014 RMK A01 T01020074  RH  083%=      5-min Rain = 0
KPA1 231743Z 01012KT 10/07 A3014 RMK A01 T01030073  RH  082%=      5-min Rain = 0
KPA1 231744Z 02012KT 10/07 A3014 RMK A01 T01030073  RH  081%=      5-min Rain = 0
KPA1 231745Z 03015KT 10/07 A3014 RMK A01 T01040074  RH  082%=      5-min Rain = 0
KPA1 231746Z 02017KT 10/07 A3014 RMK A01 T01040072  RH  080%=      5-min Rain = 0
KPA1 231747Z 02015KT 10/07 A3014 RMK A01 T01030069  RH  080%=      5-min Rain = 0
KPA1 231748Z 02013KT 10/07 A3014 RMK A01 T01020071  RH  081%=      5-min Rain = 0
KPA1 231749Z 02013KT 10/07 A3014 RMK A01 T01030072  RH  082%=      5-min Rain = 0
KPA1 231750Z 02013KT 10/07 A3014 RMK A01 T01030071  RH  081%=      5-min Rain = 0
KPA1 231751Z 01011KT 10/07 A3014 RMK A01 T01040074  RH  082%=      5-min Rain = 0
KPA1 231752Z 01015KT 11/07 A3014 RMK A01 T01060071  RH  079%=      5-min Rain = 0
KPA1 231753Z 02014KT 11/07 A3014 RMK A01 T01050066  RH  077%=      5-min Rain = 0
KPA1 231754Z 01013KT 10/07 A3014 RMK A01 T01040065  RH  076%=      5-min Rain = 0
KPA1 231755Z 01014KT 10/06 A3014 RMK A01 T01040064  RH  076%=      5-min Rain = 0
KPA1 231756Z 02015KT 10/06 A3014 RMK A01 T01040060  RH  074%=      5-min Rain = 0
KPA1 231757Z 02015KT 10/06 A3014 RMK A01 T01040058  RH  073%=      5-min Rain = 0
KPA1 231758Z 02014KT 10/06 A3014 RMK A01 T01030055  RH  072%=      5-min Rain = 0
KPA1 231759Z 01013KT 10/05 A3014 RMK A01 T01030054  RH  072%=      5-min Rain = 0
KPA1 231800Z 01014KT 10/06 A3014 RMK A01 T01030055  RH  072%=      5-min Rain = 0
KPA1 231801Z 01012KT 10/06 A3014 RMK A01 T01030056  RH  073%=      5-min Rain = 0
KPA1 231802Z 02012KT 10/06 A3014 RMK A01 T01030057  RH  073%=      5-min Rain = 0
KPA1 231803Z 02011KT 10/06 A3013 RMK A01 T01030059  RH  074%=      5-min Rain = 0
KPA1 231804Z 01013KT 10/06 A3013 RMK A01 T01040061  RH  075%=      5-min Rain = 0
KPA1 231805Z 01011KT 10/06 A3013 RMK A01 T01040060  RH  074%=      5-min Rain = 0
KPA1 231806Z 00013KT 11/06 A3013 RMK A01 T01050062  RH  075%=      5-min Rain = 0
KPA1 231807Z 01015KT 11/06 A3013 RMK A01 T01050064  RH  075%=      5-min Rain = 0
KPA1 231808Z 01013KT 11/06 A3013 RMK A01 T01050064  RH  076%=      5-min Rain = 0
KPA1 231809Z 01013KT 11/06 A3013 RMK A01 T01050062  RH  075%=      5-min Rain = 0
KPA1 231810Z 01011KT 11/06 A3013 RMK A01 T01050064  RH  076%=      5-min Rain = 0
KPA1 231811Z 02014KT 11/07 A3013 RMK A01 T01060065  RH  076%=      5-min Rain = 0
KPA1 231812Z 01012KT 11/06 A3013 RMK A01 T01060064  RH  075%=      5-min Rain = 0
KPA1 231813Z 01013KT 11/06 A3013 RMK A01 T01050063  RH  075%=      5-min Rain = 0
KPA1 231814Z 01012KT 11/07 A3013 RMK A01 T01050065  RH  076%=      5-min Rain = 0
KPA1 231815Z 00012KT 11/07 A3013 RMK A01 T01050067  RH  078%=      5-min Rain = 0
KPA1 231816Z 01010KT 11/07 A3013 RMK A01 T01050069  RH  078%=      5-min Rain = 0
KPA1 231817Z 01011KT 11/07 A3013 RMK A01 T01050068  RH  078%=      5-min Rain = 0
KPA1 231818Z 02012KT 11/07 A3013 RMK A01 T01050068  RH  078%=      5-min Rain = 0
KPA1 231819Z 02012KT 11/06 A3013 RMK A01 T01060063  RH  075%=      5-min Rain = 0
KPA1 231820Z 01013KT 11/06 A3013 RMK A01 T01070058  RH  072%=      5-min Rain = 0
KPA1 231821Z 01013KT 11/06 A3013 RMK A01 T01070057  RH  071%=      5-min Rain = 0
KPA1 231822Z 02011KT 11/06 A3013 RMK A01 T01070061  RH  073%=      5-min Rain = 0
KPA1 231823Z 02010KT 11/07 A3013 RMK A01 T01080065  RH  075%=      5-min Rain = 0
KPA1 231824Z 03012KT 11/06 A3013 RMK A01 T01080064  RH  074%=      5-min Rain = 0
KPA1 231825Z 02012KT 11/07 A3013 RMK A01 T01090066  RH  075%=      5-min Rain = 0
KPA1 231826Z 02011KT 11/07 A3013 RMK A01 T01090065  RH  074%=      5-min Rain = 0
KPA1 231827Z 02012KT 11/06 A3013 RMK A01 T01090061  RH  072%=      5-min Rain = 0
KPA1 231828Z 02013KT 11/06 A3013 RMK A01 T01090061  RH  072%=      5-min Rain = 0
KPA1 231829Z 02011KT 11/06 A3013 RMK A01 T01100063  RH  073%=      5-min Rain = 0
KPA1 231830Z 02011KT 11/07 A3013 RMK A01 T01090065  RH  074%=      5-min Rain = 0
KPA1 231831Z 02010KT 11/07 A3013 RMK A01 T01090066  RH  074%=      5-min Rain = 0
KPA1 231832Z 03009KT 11/07 A3013 RMK A01 T01100068  RH  076%=      5-min Rain = 0
KPA1 231833Z 02011KT 11/07 A3013 RMK A01 T01110068  RH  074%=      5-min Rain = 0
KPA1 231834Z 02011KT 11/07 A3013 RMK A01 T01110067  RH  074%=      5-min Rain = 0
KPA1 231835Z 01010KT 11/07 A3012 RMK A01 T01120067  RH  074%=      5-min Rain = 0
KPA1 231836Z 01011KT 11/06 A3012 RMK A01 T01120064  RH  072%=      5-min Rain = 0
KPA1 231837Z 01010KT 11/07 A3012 RMK A01 T01130066  RH  073%=      5-min Rain = 0
KPA1 231838Z 01009KT 11/07 A3012 RMK A01 T01130071  RH  075%=      5-min Rain = 0
KPA1 231839Z 01011KT 12/07 A3012 RMK A01 T01150068  RH  073%=      5-min Rain = 0
KPA1 231840Z 02010KT 12/07 A3012 RMK A01 T01150073  RH  075%=      5-min Rain = 0
KPA1 231841Z 02009KT 12/07 A3012 RMK A01 T01160071  RH  074%=      5-min Rain = 0
KPA1 231842Z 01012KT 12/07 A3012 RMK A01 T01170070  RH  073%=      5-min Rain = 0
KPA1 231843Z 01013KT 12/07 A3012 RMK A01 T01160066  RH  071%=      5-min Rain = 0
KPA1 231844Z 00011KT 12/07 A3012 RMK A01 T01150067  RH  072%=      5-min Rain = 0
KPA1 231845Z 03010KT 12/07 A3012 RMK A01 T01160071  RH  074%=      5-min Rain = 0
KPA1 231846Z 03011KT 12/07 A3012 RMK A01 T01170070  RH  073%=      5-min Rain = 0
KPA1 231847Z 03013KT 12/07 A3012 RMK A01 T01180067  RH  071%=      5-min Rain = 0
KPA1 231848Z 02013KT 12/07 A3012 RMK A01 T01170067  RH  071%=      5-min Rain = 0
KPA1 231849Z 02015KT 12/06 A3012 RMK A01 T01190063  RH  069%=      5-min Rain = 0
KPA1 231850Z 01016KT 12/06 A3012 RMK A01 T01170055  RH  066%=      5-min Rain = 0
KPA1 231851Z 02014KT 12/06 A3012 RMK A01 T01160055  RH  067%=      5-min Rain = 0
KPA1 231852Z 02013KT 12/06 A3012 RMK A01 T01160058  RH  068%=      5-min Rain = 0
KPA1 231853Z 02013KT 12/06 A3012 RMK A01 T01170061  RH  068%=      5-min Rain = 0
KPA1 231854Z 02012KT 12/06 A3012 RMK A01 T01170060  RH  068%=      5-min Rain = 0
KPA1 231855Z 01014KT 12/06 A3012 RMK A01 T01170059  RH  067%=      5-min Rain = 0
KPA1 231856Z 01013KT 12/06 A3012 RMK A01 T01190063  RH  069%=      5-min Rain = 0
KPA1 231857Z 01012KT 12/06 A3012 RMK A01 T01200063  RH  068%=      5-min Rain = 0
KPA1 231858Z 00012KT 12/06 A3012 RMK A01 T01210062  RH  067%=      5-min Rain = 0
KPA1 231859Z 02012KT 12/06 A3012 RMK A01 T01210063  RH  068%=      5-min Rain = 0
KPA1 231900Z 00012KT 12/06 A3012 RMK A01 T01210064  RH  068%=      5-min Rain = 0
KPA1 231901Z 01014KT 12/06 A3012 RMK A01 T01220062  RH  066%=      5-min Rain = 0
KPA1 231902Z 00013KT 12/06 A3012 RMK A01 T01220059  RH  066%=      5-min Rain = 0
KPA1 231903Z 01011KT 12/06 A3012 RMK A01 T01210063  RH  068%=      5-min Rain = 0
KPA1 231904Z 00010KT 12/06 A3012 RMK A01 T01210062  RH  067%=      5-min Rain = 0
KPA1 231905Z 02013KT 12/06 A3012 RMK A01 T01210063  RH  067%=      5-min Rain = 0
KPA1 231906Z 02012KT 12/06 A3012 RMK A01 T01200061  RH  067%=      5-min Rain = 0
KPA1 231907Z 01010KT 12/07 A3012 RMK A01 T01190065  RH  070%=      5-min Rain = 0
KPA1 231908Z 00013KT 12/07 A3012 RMK A01 T01210068  RH  070%=      5-min Rain = 0
KPA1 231909Z 01011KT 12/07 A3011 RMK A01 T01220067  RH  069%=      5-min Rain = 0
KPA1 231910Z 02011KT 12/06 A3011 RMK A01 T01220063  RH  068%=      5-min Rain = 0
KPA1 231911Z 01011KT 12/07 A3011 RMK A01 T01220067  RH  069%=      5-min Rain = 0
KPA1 231912Z 01011KT 12/07 A3011 RMK A01 T01240068  RH  068%=      5-min Rain = 0
KPA1 231913Z 01012KT 13/07 A3011 RMK A01 T01250068  RH  068%=      5-min Rain = 0
KPA1 231914Z 01014KT 13/07 A3011 RMK A01 T01260065  RH  067%=      5-min Rain = 0
KPA1 231915Z 01014KT 12/06 A3011 RMK A01 T01240062  RH  066%=      5-min Rain = 0
KPA1 231916Z 01013KT 12/06 A3011 RMK A01 T01230063  RH  067%=      5-min Rain = 0
KPA1 231917Z 01011KT 12/07 A3011 RMK A01 T01240069  RH  069%=      5-min Rain = 0
KPA1 231918Z 01011KT 13/07 A3011 RMK A01 T01280074  RH  070%=      5-min Rain = 0
KPA1 231919Z 01013KT 13/07 A3011 RMK A01 T01310072  RH  068%=      5-min Rain = 0
KPA1 231920Z 01013KT 13/06 A3011 RMK A01 T01290063  RH  064%=      5-min Rain = 0
KPA1 231921Z 02012KT 13/06 A3011 RMK A01 T01250060  RH  065%=      5-min Rain = 0
KPA1 231922Z 03011KT 13/06 A3011 RMK A01 T01250064  RH  066%=      5-min Rain = 0
KPA1 231923Z 03013KT 13/07 A3011 RMK A01 T01270066  RH  067%=      5-min Rain = 0
KPA1 231924Z 02013KT 13/07 A3011 RMK A01 T01270065  RH  066%=      5-min Rain = 0
KPA1 231925Z 02014KT 13/06 A3011 RMK A01 T01260062  RH  065%=      5-min Rain = 0
KPA1 231926Z 02012KT 13/07 A3011 RMK A01 T01250065  RH  067%=      5-min Rain = 0
KPA1 231927Z 02012KT 13/07 A3011 RMK A01 T01270070  RH  068%=      5-min Rain = 0
KPA1 231928Z 02015KT 13/07 A3011 RMK A01 T01300070  RH  067%=      5-min Rain = 0
KPA1 231929Z 01014KT 13/06 A3011 RMK A01 T01290063  RH  064%=      5-min Rain = 0
KPA1 231930Z 02011KT 13/07 A3011 RMK A01 T01270065  RH  066%=      5-min Rain = 0
KPA1 231931Z 02011KT 13/07 A3011 RMK A01 T01280068  RH  067%=      5-min Rain = 0
KPA1 231932Z 02010KT 13/07 A3011 RMK A01 T01300068  RH  066%=      5-min Rain = 0
KPA1 231933Z 03012KT 13/07 A3011 RMK A01 T01300071  RH  067%=      5-min Rain = 0
KPA1 231934Z 03014KT 13/07 A3011 RMK A01 T01310069  RH  066%=      5-min Rain = 0
KPA1 231935Z 02013KT 13/07 A3011 RMK A01 T01290069  RH  067%=      5-min Rain = 0
KPA1 231936Z 01013KT 13/07 A3011 RMK A01 T01290068  RH  066%=      5-min Rain = 0
KPA1 231937Z 03010KT 13/08 A3011 RMK A01 T01290077  RH  070%=      5-min Rain = 0
KPA1 231938Z 02013KT 13/08 A3011 RMK A01 T01330077  RH  069%=      5-min Rain = 0
KPA1 231939Z 01012KT 13/07 A3011 RMK A01 T01330069  RH  065%=      5-min Rain = 0
KPA1 231940Z 36010KT 13/07 A3011 RMK A01 T01310070  RH  067%=      5-min Rain = 0
KPA1 231941Z 00009G15KT 13/08 A3011 RMK A01 T01310077  RH  070%=      5-min Rain = 0
KPA1 231942Z 35013G18KT 13/07 A3011 RMK A01 T01320073  RH  067%=      5-min Rain = 0
KPA1 231943Z 00013KT 13/08 A3011 RMK A01 T01300075  RH  069%=      5-min Rain = 0
KPA1 231944Z 36013KT 13/08 A3011 RMK A01 T01300076  RH  070%=      5-min Rain = 0
KPA1 231945Z 01012KT 13/08 A3011 RMK A01 T01300076  RH  070%=      5-min Rain = 0
KPA1 231946Z 36010KT 13/07 A3011 RMK A01 T01280073  RH  069%=      5-min Rain = 0
KPA1 231947Z 35012KT 13/08 A3011 RMK A01 T01270075  RH  070%=      5-min Rain = 0
KPA1 231948Z 35012KT 13/08 A3011 RMK A01 T01280076  RH  070%=      5-min Rain = 0
KPA1 231949Z 35014KT 13/07 A3011 RMK A01 T01290074  RH  069%=      5-min Rain = 0
KPA1 231950Z 35013KT 13/08 A3011 RMK A01 T01300077  RH  070%=      5-min Rain = 0
KPA1 231951Z 35012KT 13/07 A301 RMK A01 T01300074  RH  069%=      5-min Rain = 0
KPA1 231952Z 00013KT 13/08 A301 RMK A01 T01310078  RH  071%=      5-min Rain = 0
KPA1 231953Z 00013KT 13/08 A301 RMK A01 T01330077  RH  069%=      5-min Rain = 0
KPA1 231954Z 36013KT 13/08 A301 RMK A01 T01330075  RH  068%=      5-min Rain = 0
KPA1 231955Z 35014KT 13/08 A301 RMK A01 T01320075  RH  068%=      5-min Rain = 0
KPA1 231956Z 36013KT 13/08 A301 RMK A01 T01320076  RH  069%=      5-min Rain = 0
KPA1 231957Z 02012KT 13/07 A301 RMK A01 T01320073  RH  067%=      5-min Rain = 0
KPA1 231958Z 03015KT 13/08 A301 RMK A01 T01320076  RH  068%=      5-min Rain = 0
KPA1 231959Z 01012KT 13/07 A301 RMK A01 T01320072  RH  067%=      5-min Rain = 0
KPA1 232000Z 00011KT 13/07 A301 RMK A01 T01310074  RH  068%=      5-min Rain = 0
KPA1 232001Z 01010KT 13/07 A3011 RMK A01 T01310069  RH  066%=      5-min Rain = 0
KPA1 232002Z 01013KT 13/07 A3011 RMK A01 T01290071  RH  068%=      5-min Rain = 0
KPA1 232003Z 02011KT 13/07 A3011 RMK A01 T01300072  RH  068%=      5-min Rain = 0
KPA1 232004Z 02013KT 13/07 A3011 RMK A01 T01300072  RH  068%=      5-min Rain = 0
KPA1 232005Z 02013KT 13/07 A301 RMK A01 T01300069  RH  067%=      5-min Rain = 0
KPA1 232006Z 02010KT 13/07 A301 RMK A01 T01290073  RH  069%=      5-min Rain = 0
KPA1 232007Z 35011KT 13/08 A301 RMK A01 T01310078  RH  070%=      5-min Rain = 0
KPA1 232008Z 35011KT 13/07 A301 RMK A01 T01310068  RH  066%=      5-min Rain = 0
KPA1 232009Z 35010KT 13/07 A301 RMK A01 T01290071  RH  068%=      5-min Rain = 0
KPA1 232010Z 36009KT 13/07 A3011 RMK A01 T01290074  RH  069%=      5-min Rain = 0
KPA1 232011Z 35010KT 13/07 A301 RMK A01 T01310074  RH  068%=      5-min Rain = 0
KPA1 232012Z 01013KT 13/07 A301 RMK A01 T01300072  RH  068%=      5-min Rain = 0
KPA1 232013Z 01014KT 13/07 A3011 RMK A01 T01290070  RH  067%=      5-min Rain = 0
KPA1 232014Z 01013KT 13/07 A3011 RMK A01 T01280069  RH  067%=      5-min Rain = 0
KPA1 232015Z 03012KT 13/07 A3011 RMK A01 T01270070  RH  068%=      5-min Rain = 0
KPA1 232016Z 02012KT 13/07 A3011 RMK A01 T01270071  RH  069%=      5-min Rain = 0
KPA1 232017Z 02011KT 13/07 A3011 RMK A01 T01280072  RH  069%=      5-min Rain = 0
KPA1 232018Z 01011KT 13/07 A3011 RMK A01 T01290070  RH  067%=      5-min Rain = 0
KPA1 232019Z 01011KT 13/07 A3011 RMK A01 T01290070  RH  067%=      5-min Rain = 0
KPA1 232020Z 36010KT 13/07 A301 RMK A01 T01280067  RH  066%=      5-min Rain = 0
KPA1 232021Z 36010KT 13/07 A301 RMK A01 T01280069  RH  067%=      5-min Rain = 0
KPA1 232022Z 01009KT 13/07 A301 RMK A01 T01280068  RH  067%=      5-min Rain = 0
KPA1 232023Z 01009KT 13/07 A301 RMK A01 T01290073  RH  069%=      5-min Rain = 0
KPA1 232024Z 36011KT 13/07 A301 RMK A01 T01310074  RH  068%=      5-min Rain = 0
KPA1 232025Z 00013KT 13/07 A301 RMK A01 T01320072  RH  067%=      5-min Rain = 0
KPA1 232026Z 01012KT 13/07 A301 RMK A01 T01310068  RH  066%=      5-min Rain = 0
KPA1 232027Z 00011KT 13/07 A301 RMK A01 T01290068  RH  066%=      5-min Rain = 0
KPA1 232028Z 00012KT 13/07 A301 RMK A01 T01290068  RH  067%=      5-min Rain = 0
KPA1 232029Z 36012KT 13/07 A301 RMK A01 T01280067  RH  066%=      5-min Rain = 0
KPA1 232030Z 35010KT 13/07 A301 RMK A01 T01270068  RH  067%=      5-min Rain = 0
KPA1 232031Z 35013KT 13/07 A301 RMK A01 T01280068  RH  067%=      5-min Rain = 0
KPA1 232032Z 35012KT 13/07 A301 RMK A01 T01270069  RH  068%=      5-min Rain = 0
KPA1 232033Z 00014KT 13/07 A301 RMK A01 T01270068  RH  067%=      5-min Rain = 0
KPA1 232034Z 36013KT 13/07 A301 RMK A01 T01270068  RH  067%=      5-min Rain = 0
KPA1 232035Z 00011KT 13/07 A301 RMK A01 T01270070  RH  068%=      5-min Rain = 0
KPA1 232036Z 36012KT 13/07 A301 RMK A01 T01280069  RH  067%=      5-min Rain = 0
KPA1 232037Z 36010KT 13/07 A301 RMK A01 T01270065  RH  066%=      5-min Rain = 0
KPA1 232038Z 35009KT 13/07 A301 RMK A01 T01260066  RH  067%=      5-min Rain = 0
KPA1 232039Z 35009KT 13/07 A301 RMK A01 T01260067  RH  067%=      5-min Rain = 0
KPA1 232040Z 36010KT 13/07 A301 RMK A01 T01260069  RH  068%=      5-min Rain = 0
KPA1 232041Z 36012KT 13/07 A301 RMK A01 T01280069  RH  067%=      5-min Rain = 0
KPA1 232042Z 35011KT 13/07 A301 RMK A01 T01280068  RH  067%=      5-min Rain = 0
KPA1 232043Z 35012KT 13/07 A301 RMK A01 T01290067  RH  066%=      5-min Rain = 0
KPA1 232044Z 01013KT 13/07 A301 RMK A01 T01280066  RH  066%=      5-min Rain = 0
KPA1 232045Z 36010KT 13/07 A301 RMK A01 T01290067  RH  066%=      5-min Rain = 0
KPA1 232046Z 35011KT 13/07 A301 RMK A01 T01290065  RH  065%=      5-min Rain = 0
KPA1 232047Z 35009KT 13/07 A301 RMK A01 T01290067  RH  066%=      5-min Rain = 0
KPA1 232048Z 00013KT 13/07 A301 RMK A01 T01300068  RH  066%=      5-min Rain = 0
KPA1 232049Z 36012KT 13/07 A301 RMK A01 T01300066  RH  065%=      5-min Rain = 0
KPA1 232050Z 35010KT 13/07 A301 RMK A01 T01300067  RH  065%=      5-min Rain = 0
KPA1 232051Z 01011KT 13/07 A301 RMK A01 T01310068  RH  065%=      5-min Rain = 0
KPA1 232052Z 36009KT 13/07 A301 RMK A01 T01310066  RH  065%=      5-min Rain = 0
KPA1 232053Z 00012KT 13/07 A301 RMK A01 T01320068  RH  065%=      5-min Rain = 0
KPA1 232054Z 36010KT 13/07 A3009 RMK A01 T01320067  RH  064%=      5-min Rain = 0
KPA1 232055Z 35011KT 13/07 A3009 RMK A01 T01330066  RH  064%=      5-min Rain = 0
KPA1 232056Z 35012KT 13/07 A3009 RMK A01 T01330066  RH  064%=      5-min Rain = 0
KPA1 232057Z 00010KT 13/07 A3009 RMK A01 T01330065  RH  063%=      5-min Rain = 0
KPA1 232058Z 36010KT 13/07 A3009 RMK A01 T01330066  RH  064%=      5-min Rain = 0
KPA1 232059Z 35011KT 13/06 A3009 RMK A01 T01330064  RH  063%=      5-min Rain = 0
KPA1 232100Z 36011KT 13/07 A3009 RMK A01 T01330066  RH  064%=      5-min Rain = 0
KPA1 232101Z 00012KT 13/06 A3009 RMK A01 T01330060  RH  061%=      5-min Rain = 0
KPA1 232102Z 00011KT 13/06 A3009 RMK A01 T01310061  RH  062%=      5-min Rain = 0
KPA1 232103Z 00010KT 13/06 A3009 RMK A01 T01310062  RH  063%=      5-min Rain = 0
KPA1 232104Z 35010KT 13/07 A3009 RMK A01 T01310065  RH  064%=      5-min Rain = 0
KPA1 232105Z 00012KT 13/06 A3009 RMK A01 T01320060  RH  062%=      5-min Rain = 0
KPA1 232106Z 02012KT 13/06 A3009 RMK A01 T01320062  RH  062%=      5-min Rain = 0
KPA1 232107Z 01010KT 13/06 A3009 RMK A01 T01320062  RH  062%=      5-min Rain = 0
KPA1 232108Z 34012KT 13/06 A3009 RMK A01 T01340058  RH  060%=      5-min Rain = 0
KPA1 232109Z 34011KT 13/05 A3009 RMK A01 T01340051  RH  057%=      5-min Rain = 0
KPA1 232110Z 01012KT 13/05 A3009 RMK A01 T01330052  RH  058%=      5-min Rain = 0
KPA1 232111Z 00014KT 13/05 A3009 RMK A01 T01330051  RH  058%=      5-min Rain = 0
KPA1 232112Z 00011KT 13/05 A3009 RMK A01 T01330049  RH  057%=      5-min Rain = 0
KPA1 232113Z 35009KT 14/05 A3009 RMK A01 T01350054  RH  058%=      5-min Rain = 0
KPA1 232114Z 35010KT 14/05 A3009 RMK A01 T01360049  RH  055%=      5-min Rain = 0
KPA1 232115Z 36013KT 14/05 A3009 RMK A01 T01370050  RH  056%=      5-min Rain = 0
KPA1 232116Z 35012KT 14/05 A3009 RMK A01 T01380050  RH  055%=      5-min Rain = 0
KPA1 232117Z 36011KT 14/05 A3009 RMK A01 T01370046  RH  054%=      5-min Rain = 0
KPA1 232118Z 36011KT 14/05 A3009 RMK A01 T01360045  RH  054%=      5-min Rain = 0
KPA1 232119Z 34011KT 14/04 A3009 RMK A01 T01360044  RH  054%=      5-min Rain = 0
KPA1 232120Z 35013KT 14/04 A3009 RMK A01 T01350044  RH  054%=      5-min Rain = 0
KPA1 232121Z 36012KT 13/04 A3009 RMK A01 T01340043  RH  054%=      5-min Rain = 0
KPA1 232122Z 36012KT 13/04 A3009 RMK A01 T01340044  RH  054%=      5-min Rain = 0
KPA1 232123Z 36012KT 13/05 A3009 RMK A01 T01340047  RH  056%=      5-min Rain = 0
KPA1 232124Z 35012KT 14/05 A3009 RMK A01 T01350045  RH  055%=      5-min Rain = 0
KPA1 232125Z 35010KT 14/04 A3009 RMK A01 T01350044  RH  054%=      5-min Rain = 0
KPA1 232126Z 35012KT 13/05 A3009 RMK A01 T01340046  RH  055%=      5-min Rain = 0
KPA1 232127Z 35011KT 13/04 A3009 RMK A01 T01340044  RH  054%=      5-min Rain = 0
KPA1 232128Z 34009KT 13/05 A3009 RMK A01 T01340046  RH  055%=      5-min Rain = 0
KPA1 232129Z 34010KT 13/05 A3009 RMK A01 T01340049  RH  056%=      5-min Rain = 0
KPA1 232130Z 00010KT 14/05 A3009 RMK A01 T01350054  RH  058%=      5-min Rain = 0
KPA1 232131Z 00007KT 14/05 A3009 RMK A01 T01370054  RH  057%=      5-min Rain = 0
KPA1 232132Z 02011KT 14/06 A3009 RMK A01 T01380057  RH  058%=      5-min Rain = 0
KPA1 232133Z 02009KT 14/06 A3009 RMK A01 T01390059  RH  058%=      5-min Rain = 0
KPA1 232134Z 02009KT 14/06 A3009 RMK A01 T01390058  RH  058%=      5-min Rain = 0
KPA1 232135Z 02009KT 14/06 A3009 RMK A01 T01380060  RH  059%=      5-min Rain = 0
KPA1 232136Z 00008KT 14/06 A3009 RMK A01 T01390063  RH  060%=      5-min Rain = 0
KPA1 232137Z 35008KT 14/07 A3009 RMK A01 T01400066  RH  061%=      5-min Rain = 0
KPA1 232138Z 35008KT 14/06 A3008 RMK A01 T01410063  RH  059%=      5-min Rain = 0
KPA1 232139Z 35010KT 14/06 A3009 RMK A01 T01410063  RH  059%=      5-min Rain = 0
KPA1 232140Z 36009KT 14/06 A3008 RMK A01 T01410058  RH  057%=      5-min Rain = 0
KPA1 232141Z 01010KT 14/06 A3009 RMK A01 T01400058  RH  058%=      5-min Rain = 0
KPA1 232142Z 01012KT 14/06 A3009 RMK A01 T01370056  RH  058%=      5-min Rain = 0
KPA1 232143Z 01011KT 14/06 A3009 RMK A01 T01350055  RH  058%=      5-min Rain = 0
KPA1 232144Z 02009KT 14/06 A3009 RMK A01 T01350057  RH  059%=      5-min Rain = 0
KPA1 232145Z 02009KT 13/06 A3009 RMK A01 T01340058  RH  060%=      5-min Rain = 0
KPA1 232146Z 01009KT 14/06 A3009 RMK A01 T01350060  RH  060%=      5-min Rain = 0
KPA1 232147Z 33010KT 14/06 A3008 RMK A01 T01360062  RH  061%=      5-min Rain = 0
KPA1 232148Z 34010KT 14/06 A3008 RMK A01 T01360060  RH  060%=      5-min Rain = 0
KPA1 232149Z 33009KT 14/06 A3009 RMK A01 T01350056  RH  059%=      5-min Rain = 0
KPA1 232150Z 34010KT 13/06 A3008 RMK A01 T01340058  RH  060%=      5-min Rain = 0
KPA1 232151Z 34009KT 13/06 A3009 RMK A01 T01340060  RH  061%=      5-min Rain = 0
KPA1 232152Z 34009KT 13/06 A3008 RMK A01 T01340059  RH  060%=      5-min Rain = 0
KPA1 232153Z 34008KT 13/06 A3008 RMK A01 T01340059  RH  061%=      5-min Rain = 0
KPA1 232154Z 33008KT 13/06 A3008 RMK A01 T01340061  RH  061%=      5-min Rain = 0
KPA1 232155Z 36009KT 14/06 A3008 RMK A01 T01350061  RH  061%=      5-min Rain = 0
KPA1 232156Z 35010KT 14/06 A3008 RMK A01 T01360064  RH  062%=      5-min Rain = 0
KPA1 232157Z 35011KT 14/06 A3008 RMK A01 T01370061  RH  060%=      5-min Rain = 0
KPA1 232158Z 35011KT 14/06 A3008 RMK A01 T01370060  RH  060%=      5-min Rain = 0
KPA1 232159Z 35008KT 14/06 A3008 RMK A01 T01360057  RH  059%=      5-min Rain = 0
KPA1 232200Z 01008KT 14/06 A3009 RMK A01 T01350056  RH  059%=      5-min Rain = 0
KPA1 232201Z 01008KT 13/06 A3009 RMK A01 T01340059  RH  060%=      5-min Rain = 0
KPA1 232202Z 01008KT 14/06 A3009 RMK A01 T01360063  RH  061%=      5-min Rain = 0
KPA1 232203Z 00009KT 14/06 A3009 RMK A01 T01370062  RH  060%=      5-min Rain = 0
KPA1 232204Z 00009KT 14/06 A3009 RMK A01 T01370061  RH  060%=      5-min Rain = 0
KPA1 232205Z 35008KT 14/06 A3009 RMK A01 T01360060  RH  060%=      5-min Rain = 0
KPA1 232206Z 36008KT 14/07 A3009 RMK A01 T01370066  RH  063%=      5-min Rain = 0
KPA1 232207Z 00009KT 14/06 A3009 RMK A01 T01370061  RH  060%=      5-min Rain = 0
KPA1 232208Z 35009KT 14/06 A3008 RMK A01 T01360061  RH  060%=      5-min Rain = 0
KPA1 232209Z 35010KT 14/06 A3009 RMK A01 T01360061  RH  060%=      5-min Rain = 0
KPA1 232210Z 36009KT 14/06 A3008 RMK A01 T01370064  RH  061%=      5-min Rain = 0
KPA1 232211Z 36010KT 14/06 A3008 RMK A01 T01370060  RH  060%=      5-min Rain = 0
KPA1 232212Z 35009KT 14/06 A3008 RMK A01 T01360063  RH  061%=      5-min Rain = 0
KPA1 232213Z 01010KT 14/06 A3008 RMK A01 T01370064  RH  061%=      5-min Rain = 0
KPA1 232214Z 02011KT 14/07 A3008 RMK A01 T01380065  RH  061%=      5-min Rain = 0
KPA1 232215Z 01011KT 14/06 A3008 RMK A01 T01380061  RH  059%=      5-min Rain = 0
KPA1 232216Z 36011KT 14/06 A3008 RMK A01 T01380061  RH  060%=      5-min Rain = 0
KPA1 232217Z 01012KT 14/06 A3008 RMK A01 T01380061  RH  060%=      5-min Rain = 0
KPA1 232218Z 01011KT 14/06 A3008 RMK A01 T01370058  RH  059%=      5-min Rain = 0
KPA1 232219Z 36013KT 14/06 A3008 RMK A01 T01360058  RH  059%=      5-min Rain = 0
KPA1 232220Z 36010KT 14/06 A3008 RMK A01 T01360057  RH  059%=      5-min Rain = 0
KPA1 232221Z 34011KT 14/06 A3008 RMK A01 T01360060  RH  060%=      5-min Rain = 0
KPA1 232222Z 34011KT 14/06 A3008 RMK A01 T01370061  RH  060%=      5-min Rain = 0
KPA1 232223Z 34010KT 14/06 A3008 RMK A01 T01370058  RH  059%=      5-min Rain = 0
KPA1 232224Z 35010KT 14/06 A3008 RMK A01 T01360058  RH  059%=      5-min Rain = 0
KPA1 232225Z 35008KT 14/06 A3009 RMK A01 T01370063  RH  061%=      5-min Rain = 0
KPA1 232226Z 35010KT 14/06 A3009 RMK A01 T01380063  RH  060%=      5-min Rain = 0
KPA1 232227Z 02009KT 14/06 A3009 RMK A01 T01380060  RH  059%=      5-min Rain = 0
KPA1 232228Z 00007KT 14/06 A3009 RMK A01 T01380062  RH  060%=      5-min Rain = 0
KPA1 232229Z 35011KT 14/06 A3009 RMK A01 T01380062  RH  060%=      5-min Rain = 0
KPA1 232230Z 35010KT 14/06 A3009 RMK A01 T01380058  RH  059%=      5-min Rain = 0
KPA1 232231Z 34010KT 14/06 A3009 RMK A01 T01370060  RH  060%=      5-min Rain = 0
KPA1 232232Z 34010KT 14/06 A3009 RMK A01 T01370062  RH  060%=      5-min Rain = 0
KPA1 232233Z 34011KT 14/06 A3008 RMK A01 T01370058  RH  059%=      5-min Rain = 0
KPA1 232234Z 01010KT 14/06 A3009 RMK A01 T01360059  RH  060%=      5-min Rain = 0
KPA1 232235Z 36011KT 14/06 A3009 RMK A01 T01360057  RH  059%=      5-min Rain = 0
KPA1 232236Z 36011KT 14/06 A3009 RMK A01 T01360059  RH  060%=      5-min Rain = 0
KPA1 232237Z 01009KT 14/06 A3009 RMK A01 T01360063  RH  061%=      5-min Rain = 0
KPA1 232238Z 00009KT 14/06 A3009 RMK A01 T01370060  RH  060%=      5-min Rain = 0
KPA1 232239Z 02011KT 14/06 A3009 RMK A01 T01380055  RH  057%=      5-min Rain = 0
KPA1 232240Z 02010KT 14/05 A3009 RMK A01 T01360052  RH  057%=      5-min Rain = 0
KPA1 232241Z 01010KT 14/05 A3009 RMK A01 T01360054  RH  058%=      5-min Rain = 0
KPA1 232242Z 36008KT 14/05 A3009 RMK A01 T01350050  RH  056%=      5-min Rain = 0
KPA1 232243Z 35007KT 14/05 A3009 RMK A01 T01350054  RH  058%=      5-min Rain = 0
KPA1 232244Z 35007KT 14/06 A3009 RMK A01 T01360059  RH  060%=      5-min Rain = 0
KPA1 232245Z 34009KT 14/06 A3009 RMK A01 T01370057  RH  058%=      5-min Rain = 0
KPA1 232246Z 35011KT 14/06 A3008 RMK A01 T01370057  RH  058%=      5-min Rain = 0
KPA1 232247Z 00010KT 14/06 A3009 RMK A01 T01370057  RH  058%=      5-min Rain = 0
KPA1 232248Z 35011KT 14/05 A3009 RMK A01 T01360053  RH  057%=      5-min Rain = 0
KPA1 232249Z 35010KT 14/05 A3009 RMK A01 T01360053  RH  057%=      5-min Rain = 0
KPA1 232250Z 35009KT 14/05 A3009 RMK A01 T01350053  RH  058%=      5-min Rain = 0
KPA1 232251Z 34008KT 14/05 A3009 RMK A01 T01350053  RH  058%=      5-min Rain = 0
KPA1 232252Z 34011KT 14/06 A3008 RMK A01 T01360057  RH  059%=      5-min Rain = 0
KPA1 232253Z 35009KT 14/06 A3008 RMK A01 T01360056  RH  058%=      5-min Rain = 0
KPA1 232254Z 35010KT 14/06 A3008 RMK A01 T01360056  RH  058%=      5-min Rain = 0
KPA1 232255Z 35007KT 14/05 A3008 RMK A01 T01360052  RH  057%=      5-min Rain = 0
KPA1 232256Z 35008KT 14/05 A3008 RMK A01 T01360054  RH  058%=      5-min Rain = 0
KPA1 232257Z 35011KT 14/06 A3008 RMK A01 T01370055  RH  058%=      5-min Rain = 0
KPA1 232258Z 36012KT 14/05 A3008 RMK A01 T01370050  RH  056%=      5-min Rain = 0
KPA1 232259Z 36009KT 14/05 A3008 RMK A01 T01360047  RH  055%=      5-min Rain = 0
KPA1 232300Z 36011KT 14/05 A3008 RMK A01 T01360050  RH  056%=      5-min Rain = 0
KPA1 232301Z 35011KT 14/05 A3008 RMK A01 T01360046  RH  054%=      5-min Rain = 0
KPA1 232302Z 00011KT 14/05 A3008 RMK A01 T01350046  RH  055%=      5-min Rain = 0
KPA1 232303Z 35010KT 14/05 A3008 RMK A01 T01350046  RH  055%=      5-min Rain = 0
KPA1 232304Z 35010KT 14/04 A3008 RMK A01 T01360044  RH  054%=      5-min Rain = 0
KPA1 232305Z 35009KT 14/04 A3008 RMK A01 T01350044  RH  054%=      5-min Rain = 0
KPA1 232306Z 00009KT 14/05 A3008 RMK A01 T01360046  RH  055%=      5-min Rain = 0
KPA1 232307Z 00009KT 14/05 A3008 RMK A01 T01360047  RH  055%=      5-min Rain = 0
KPA1 232308Z 36010KT 14/05 A3008 RMK A01 T01370048  RH  055%=      5-min Rain = 0
KPA1 232309Z 00009KT 14/04 A3008 RMK A01 T01360044  RH  053%=      5-min Rain = 0
KPA1 232310Z 35010KT 14/05 A3008 RMK A01 T01360049  RH  055%=      5-min Rain = 0
KPA1 232311Z 35009KT 14/04 A3008 RMK A01 T01360043  RH  053%=      5-min Rain = 0
KPA1 232312Z 35009KT 14/05 A3008 RMK A01 T01360045  RH  054%=      5-min Rain = 0
KPA1 232313Z 35008KT 14/04 A3008 RMK A01 T01360044  RH  054%=      5-min Rain = 0
KPA1 232314Z 34010KT 14/05 A3008 RMK A01 T01360047  RH  055%=      5-min Rain = 0
KPA1 232315Z 35008KT 14/04 A3008 RMK A01 T01350041  RH  053%=      5-min Rain = 0
KPA1 232316Z 00008KT 13/05 A3008 RMK A01 T01340046  RH  055%=      5-min Rain = 0
KPA1 232317Z 01008KT 14/05 A3008 RMK A01 T01350047  RH  055%=      5-min Rain = 0
KPA1 232318Z 02011KT 14/05 A3008 RMK A01 T01360046  RH  054%=      5-min Rain = 0
KPA1 232319Z 01010KT 14/04 A3008 RMK A01 T01360043  RH  053%=      5-min Rain = 0
KPA1 232320Z 01010KT 14/04 A3008 RMK A01 T01350043  RH  054%=      5-min Rain = 0
KPA1 232321Z 01010KT 13/05 A3008 RMK A01 T01340047  RH  055%=      5-min Rain = 0
KPA1 232322Z 01011KT 13/04 A3008 RMK A01 T01340044  RH  054%=      5-min Rain = 0
KPA1 232323Z 01008KT 13/04 A3008 RMK A01 T01340042  RH  054%=      5-min Rain = 0
KPA1 232324Z 00009KT 13/05 A3008 RMK A01 T01340045  RH  055%=      5-min Rain = 0
KPA1 232325Z 01008KT 13/04 A3008 RMK A01 T01340044  RH  054%=      5-min Rain = 0
KPA1 232326Z 01009KT 13/05 A3008 RMK A01 T01340046  RH  055%=      5-min Rain = 0
KPA1 232327Z 01010KT 14/05 A3008 RMK A01 T01350045  RH  055%=      5-min Rain = 0
KPA1 232328Z 00010KT 13/04 A3008 RMK A01 T01340042  RH  053%=      5-min Rain = 0
KPA1 232329Z 01008KT 13/04 A3008 RMK A01 T01340040  RH  053%=      5-min Rain = 0
KPA1 232330Z 36009KT 13/04 A3008 RMK A01 T01340040  RH  053%=      5-min Rain = 0
KPA1 232331Z 01009KT 13/04 A3008 RMK A01 T01330042  RH  054%=      5-min Rain = 0
KPA1 232332Z 01011KT 13/04 A3008 RMK A01 T01330042  RH  054%=      5-min Rain = 0
KPA1 232333Z 01009KT 13/04 A3008 RMK A01 T01330042  RH  054%=      5-min Rain = 0
KPA1 232334Z 01009KT 13/04 A3008 RMK A01 T01330039  RH  053%=      5-min Rain = 0
KPA1 232335Z 01009KT 13/04 A3008 RMK A01 T01330040  RH  053%=      5-min Rain = 0
KPA1 232336Z 01008KT 13/04 A3008 RMK A01 T01330038  RH  053%=      5-min Rain = 0
KPA1 232337Z 01009KT 13/04 A3008 RMK A01 T01330042  RH  054%=      5-min Rain = 0
KPA1 232338Z 00008KT 13/04 A3008 RMK A01 T01330043  RH  055%=      5-min Rain = 0
KPA1 232339Z 00007KT 13/04 A3008 RMK A01 T01330040  RH  053%=      5-min Rain = 0
KPA1 232340Z 01008KT 13/04 A3008 RMK A01 T01330039  RH  053%=      5-min Rain = 0
KPA1 232341Z 01009KT 13/04 A3008 RMK A01 T01330040  RH  053%=      5-min Rain = 0
KPA1 232342Z 01008KT 13/04 A3008 RMK A01 T01320037  RH  053%=      5-min Rain = 0
KPA1 232343Z 35007KT 13/04 A3008 RMK A01 T01320040  RH  054%=      5-min Rain = 0
KPA1 232344Z 34006KT 13/04 A3008 RMK A01 T01320044  RH  055%=      5-min Rain = 0
KPA1 232345Z 34006KT 13/04 A3008 RMK A01 T01330040  RH  053%=      5-min Rain = 0
KPA1 232346Z 34008KT 13/04 A3008 RMK A01 T01320041  RH  054%=      5-min Rain = 0
KPA1 232347Z 35007KT 13/05 A3008 RMK A01 T01330046  RH  056%=      5-min Rain = 0
KPA1 232348Z 35006KT 13/05 A3008 RMK A01 T01330049  RH  057%=      5-min Rain = 0
KPA1 232349Z 34009KT 13/05 A3008 RMK A01 T01340048  RH  056%=      5-min Rain = 0
KPA1 232350Z 35009KT 13/04 A3008 RMK A01 T01330042  RH  054%=      5-min Rain = 0
KPA1 232351Z 00009KT 13/04 A3008 RMK A01 T01320040  RH  054%=      5-min Rain = 0
KPA1 232352Z 00009KT 13/04 A3008 RMK A01 T01320042  RH  055%=      5-min Rain = 0
KPA1 232353Z 36009KT 13/04 A3008 RMK A01 T01320043  RH  055%=      5-min Rain = 0
KPA1 232354Z 36009KT 13/04 A3008 RMK A01 T01310042  RH  055%=      5-min Rain = 0
KPA1 232355Z 35009KT 13/05 A3008 RMK A01 T01310045  RH  056%=      5-min Rain = 0
KPA1 232356Z 00009KT 13/05 A3008 RMK A01 T01310047  RH  057%=      5-min Rain = 0
KPA1 232357Z 00009KT 13/05 A3008 RMK A01 T01310046  RH  056%=      5-min Rain = 0
KPA1 232358Z 36009KT 13/05 A3008 RMK A01 T01310045  RH  056%=      5-min Rain = 0
KPA1 232359Z 36009KT 13/05 A3008 RMK A01 T01310047  RH  057%=      5-min Rain = 0
KPA1 240000Z 35009KT 13/05 A3008 RMK A01 T01310046  RH  056%=      5-min Rain = 0
KPA1 240001Z 00009KT 13/05 A3008 RMK A01 T01310046  RH  056%=      5-min Rain = 0
KPA1 240002Z 36009KT 13/05 A3008 RMK A01 T01310047  RH  057%=      5-min Rain = 0
KPA1 240003Z 00010KT 13/05 A3008 RMK A01 T01310049  RH  057%=      5-min Rain = 0
KPA1 240004Z 01010KT 13/05 A3008 RMK A01 T01310048  RH  057%=      5-min Rain = 0
KPA1 240005Z 36012KT 13/05 A3008 RMK A01 T01310050  RH  058%=      5-min Rain = 0
KPA1 240006Z 36013KT 13/05 A3008 RMK A01 T01300053  RH  059%=      5-min Rain = 0
KPA1 240007Z 36011KT 13/06 A3008 RMK A01 T01300056  RH  061%=      5-min Rain = 0
KPA1 240008Z 35011KT 13/06 A3007 RMK A01 T01300056  RH  061%=      5-min Rain = 0
KPA1 240009Z 35014KT 13/06 A3007 RMK A01 T01290055  RH  061%=      5-min Rain = 0
KPA1 240010Z 35011KT 13/05 A3007 RMK A01 T01290054  RH  060%=      5-min Rain = 0
KPA1 240011Z 35010KT 13/06 A3007 RMK A01 T01280056  RH  062%=      5-min Rain = 0
KPA1 240012Z 34010KT 13/06 A3007 RMK A01 T01280057  RH  062%=      5-min Rain = 0
KPA1 240013Z 34011KT 13/06 A3007 RMK A01 T01280056  RH  062%=      5-min Rain = 0
KPA1 240014Z 34011KT 13/06 A3007 RMK A01 T01280055  RH  061%=      5-min Rain = 0
KPA1 240015Z 34010KT 13/06 A3007 RMK A01 T01280056  RH  062%=      5-min Rain = 0
KPA1 240016Z 34010KT 13/06 A3007 RMK A01 T01280056  RH  061%=      5-min Rain = 0
KPA1 240017Z 34010KT 13/06 A3007 RMK A01 T01280057  RH  062%=      5-min Rain = 0
KPA1 240018Z 34011KT 13/06 A3007 RMK A01 T01280056  RH  062%=      5-min Rain = 0
KPA1 240019Z 34010KT 13/06 A3007 RMK A01 T01280055  RH  061%=      5-min Rain = 0
KPA1 240020Z 34012KT 13/06 A3007 RMK A01 T01280055  RH  061%=      5-min Rain = 0
KPA1 240021Z 34009KT 13/06 A3007 RMK A01 T01270055  RH  062%=      5-min Rain = 0
KPA1 240022Z 34011KT 13/06 A3007 RMK A01 T01270055  RH  062%=      5-min Rain = 0
KPA1 240023Z 35011KT 13/06 A3007 RMK A01 T01270056  RH  062%=      5-min Rain = 0
KPA1 240024Z 35012KT 13/06 A3007 RMK A01 T01270055  RH  062%=      5-min Rain = 0
KPA1 240025Z 34012KT 13/05 A3007 RMK A01 T01260052  RH  061%=      5-min Rain = 0
KPA1 240026Z 34011KT 13/05 A3007 RMK A01 T01260053  RH  061%=      5-min Rain = 0
KPA1 240027Z 34011KT 13/05 A3007 RMK A01 T01250052  RH  061%=      5-min Rain = 0
KPA1 240028Z 35010KT 13/05 A3007 RMK A01 T01250053  RH  061%=      5-min Rain = 0
KPA1 240029Z 34010KT 13/05 A3007 RMK A01 T01250053  RH  061%=      5-min Rain = 0
KPA1 240030Z 35010KT 13/05 A3007 RMK A01 T01250052  RH  061%=      5-min Rain = 0
KPA1 240031Z 35010KT 13/05 A3007 RMK A01 T01250053  RH  062%=      5-min Rain = 0
KPA1 240032Z 34007KT 12/06 A3007 RMK A01 T01240055  RH  063%=      5-min Rain = 0
KPA1 240033Z 35009KT 12/05 A3007 RMK A01 T01240054  RH  062%=      5-min Rain = 0
KPA1 240034Z 34008KT 12/05 A3007 RMK A01 T01240053  RH  062%=      5-min Rain = 0
KPA1 240035Z 35009KT 12/05 A3008 RMK A01 T01240053  RH  062%=      5-min Rain = 0
KPA1 240036Z 35008KT 12/05 A3008 RMK A01 T01240052  RH  062%=      5-min Rain = 0
KPA1 240037Z 35011KT 12/05 A3008 RMK A01 T01240052  RH  062%=      5-min Rain = 0
KPA1 240038Z 34010KT 12/05 A3008 RMK A01 T01240048  RH  060%=      5-min Rain = 0
KPA1 240039Z 35009KT 12/05 A3008 RMK A01 T01230050  RH  061%=      5-min Rain = 0
KPA1 240040Z 34010KT 12/05 A3007 RMK A01 T01230050  RH  061%=      5-min Rain = 0
KPA1 240041Z 34011KT 12/05 A3007 RMK A01 T01230049  RH  061%=      5-min Rain = 0
KPA1 240042Z 34008KT 12/05 A3007 RMK A01 T01230049  RH  061%=      5-min Rain = 0
KPA1 240043Z 34009KT 12/05 A3007 RMK A01 T01230051  RH  062%=      5-min Rain = 0
KPA1 240044Z 34010KT 12/05 A3007 RMK A01 T01220049  RH  061%=      5-min Rain = 0
KPA1 240045Z 35009KT 12/05 A3007 RMK A01 T01220049  RH  061%=      5-min Rain = 0
KPA1 240046Z 35008KT 12/05 A3007 RMK A01 T01220049  RH  061%=      5-min Rain = 0
KPA1 240047Z 35010KT 12/05 A3007 RMK A01 T01220048  RH  061%=      5-min Rain = 0
KPA1 240048Z 34009KT 12/05 A3007 RMK A01 T01220048  RH  061%=      5-min Rain = 0
KPA1 240049Z 35007KT 12/05 A3008 RMK A01 T01220050  RH  061%=      5-min Rain = 0
KPA1 240050Z 35008KT 12/05 A3008 RMK A01 T01210050  RH  062%=      5-min Rain = 0
KPA1 240051Z 35008KT 12/05 A3007 RMK A01 T01210049  RH  061%=      5-min Rain = 0
KPA1 240052Z 36006KT 12/05 A3007 RMK A01 T01210049  RH  061%=      5-min Rain = 0
KPA1 240053Z 35007KT 12/05 A3007 RMK A01 T01210053  RH  063%=      5-min Rain = 0
KPA1 240054Z 35007KT 12/05 A3007 RMK A01 T01210054  RH  064%=      5-min Rain = 0
KPA1 240055Z 35007KT 12/05 A3008 RMK A01 T01210053  RH  063%=      5-min Rain = 0
KPA1 240056Z 35008KT 12/05 A3007 RMK A01 T01210052  RH  063%=      5-min Rain = 0
KPA1 240057Z 35008KT 12/05 A3007 RMK A01 T01210049  RH  061%=      5-min Rain = 0
KPA1 240058Z 36008KT 12/05 A3007 RMK A01 T01210047  RH  061%=      5-min Rain = 0
KPA1 240059Z 35007KT 12/05 A3007 RMK A01 T01210051  RH  062%=      5-min Rain = 0
KPA1 240100Z 36007KT 12/05 A3007 RMK A01 T01210051  RH  062%=      5-min Rain = 0
KPA1 240101Z 35008KT 12/05 A3007 RMK A01 T01210049  RH  062%=      5-min Rain = 0
KPA1 240102Z 35007KT 12/05 A3007 RMK A01 T01210049  RH  061%=      5-min Rain = 0
KPA1 240103Z 35008KT 12/05 A3007 RMK A01 T01210049  RH  061%=      5-min Rain = 0
KPA1 240104Z 35007KT 12/05 A3007 RMK A01 T01210050  RH  062%=      5-min Rain = 0
KPA1 240105Z 35006KT 12/05 A3007 RMK A01 T01210050  RH  062%=      5-min Rain = 0
KPA1 240106Z 35007KT 12/05 A3007 RMK A01 T01210050  RH  062%=      5-min Rain = 0
KPA1 240107Z 35007KT 12/05 A3007 RMK A01 T01210050  RH  062%=      5-min Rain = 0
KPA1 240108Z 00006KT 12/05 A3007 RMK A01 T01210050  RH  062%=      5-min Rain = 0
KPA1 240109Z 01007KT 12/05 A3007 RMK A01 T01200052  RH  063%=      5-min Rain = 0
KPA1 240110Z 00007KT 12/05 A3007 RMK A01 T01200049  RH  062%=      5-min Rain = 0
KPA1 240111Z 00006KT 12/05 A3007 RMK A01 T01200050  RH  062%=      5-min Rain = 0
KPA1 240112Z 01006KT 12/05 A3007 RMK A01 T01200051  RH  063%=      5-min Rain = 0
KPA1 240113Z 00005KT 12/05 A3007 RMK A01 T01190052  RH  063%=      5-min Rain = 0
KPA1 240114Z 01005KT 12/05 A3007 RMK A01 T01190052  RH  064%=      5-min Rain = 0
KPA1 240115Z 36005KT 12/05 A3007 RMK A01 T01180054  RH  065%=      5-min Rain = 0
KPA1 240116Z 00006KT 12/05 A3007 RMK A01 T01170051  RH  064%=      5-min Rain = 0
KPA1 240117Z 36005KT 12/05 A3007 RMK A01 T01170051  RH  064%=      5-min Rain = 0
KPA1 240118Z 36005KT 12/05 A3007 RMK A01 T01170053  RH  065%=      5-min Rain = 0
KPA1 240119Z 00005KT 12/05 A3007 RMK A01 T01160053  RH  065%=      5-min Rain = 0
KPA1 240120Z 00005KT 12/05 A3007 RMK A01 T01160052  RH  065%=      5-min Rain = 0
KPA1 240121Z 36004KT 12/05 A3007 RMK A01 T01160053  RH  065%=      5-min Rain = 0
KPA1 240122Z 35005KT 12/05 A3007 RMK A01 T01160052  RH  065%=      5-min Rain = 0
KPA1 240123Z 36004KT 12/05 A3007 RMK A01 T01160053  RH  065%=      5-min Rain = 0
KPA1 240124Z 36005KT 12/05 A3007 RMK A01 T01160054  RH  066%=      5-min Rain = 0
KPA1 240125Z 35006KT 12/05 A3007 RMK A01 T01160054  RH  066%=      5-min Rain = 0
KPA1 240126Z 35006KT 12/05 A3007 RMK A01 T01150054  RH  066%=      5-min Rain = 0
KPA1 240127Z 36007KT 12/05 A3007 RMK A01 T01150054  RH  066%=      5-min Rain = 0
KPA1 240128Z 35006KT 12/05 A3007 RMK A01 T01150054  RH  066%=      5-min Rain = 0
KPA1 240129Z 35006KT 11/05 A3007 RMK A01 T01140054  RH  067%=      5-min Rain = 0
KPA1 240130Z 34007KT 11/05 A3007 RMK A01 T01130054  RH  067%=      5-min Rain = 0
KPA1 240131Z 35007KT 11/05 A3007 RMK A01 T01130051  RH  066%=      5-min Rain = 0
KPA1 240132Z 35006KT 11/05 A3007 RMK A01 T01130052  RH  066%=      5-min Rain = 0
KPA1 240133Z 35006KT 11/05 A3007 RMK A01 T01130053  RH  067%=      5-min Rain = 0
KPA1 240134Z 35007KT 11/05 A3007 RMK A01 T01120054  RH  067%=      5-min Rain = 0
KPA1 240135Z 35006KT 11/05 A3007 RMK A01 T01120052  RH  067%=      5-min Rain = 0
KPA1 240136Z 36007KT 11/05 A3007 RMK A01 T01120052  RH  067%=      5-min Rain = 0
KPA1 240137Z 35007KT 11/05 A3007 RMK A01 T01110051  RH  067%=      5-min Rain = 0
KPA1 240138Z 35006KT 11/05 A3007 RMK A01 T01110051  RH  067%=      5-min Rain = 0
KPA1 240139Z 35006KT 11/05 A3007 RMK A01 T01100051  RH  067%=      5-min Rain = 0
KPA1 240140Z 35007KT 11/05 A3007 RMK A01 T01090050  RH  067%=      5-min Rain = 0
KPA1 240141Z 35006KT 11/05 A3007 RMK A01 T01090049  RH  066%=      5-min Rain = 0
KPA1 240142Z 35007KT 11/05 A3007 RMK A01 T01090051  RH  068%=      5-min Rain = 0
KPA1 240143Z 35007KT 11/05 A3006 RMK A01 T01070050  RH  068%=      5-min Rain = 0
KPA1 240144Z 34006KT 11/05 A3006 RMK A01 T01060049  RH  068%=      5-min Rain = 0
KPA1 240145Z 33006KT 11/05 A3006 RMK A01 T01060049  RH  068%=      5-min Rain = 0
KPA1 240146Z 33007KT 11/05 A3006 RMK A01 T01060053  RH  070%=      5-min Rain = 0
KPA1 240147Z 33008KT 11/06 A3006 RMK A01 T01050056  RH  072%=      5-min Rain = 0
KPA1 240148Z 33007KT 11/06 A3006 RMK A01 T01050058  RH  073%=      5-min Rain = 0
KPA1 240149Z 33007KT 10/06 A3006 RMK A01 T01040059  RH  074%=      5-min Rain = 0
KPA1 240150Z 33008KT 10/06 A3006 RMK A01 T01030058  RH  074%=      5-min Rain = 0
KPA1 240151Z 34008KT 10/06 A3006 RMK A01 T01020056  RH  073%=      5-min Rain = 0
KPA1 240152Z 33006KT 10/06 A3006 RMK A01 T01030056  RH  073%=      5-min Rain = 0
KPA1 240153Z 33006KT 10/06 A3006 RMK A01 T01030058  RH  074%=      5-min Rain = 0
KPA1 240154Z 33007KT 10/06 A3006 RMK A01 T01010058  RH  074%=      5-min Rain = 0
KPA1 240155Z 34008KT 10/06 A3006 RMK A01 T01010057  RH  075%=      5-min Rain = 0
KPA1 240156Z 34008KT 10/06 A3006 RMK A01 T01010056  RH  074%=      5-min Rain = 0
KPA1 240157Z 34007KT 10/06 A3006 RMK A01 T01010057  RH  074%=      5-min Rain = 0
KPA1 240158Z 34007KT 10/06 A3006 RMK A01 T01000057  RH  075%=      5-min Rain = 0
KPA1 240159Z 34007KT 10/06 A3006 RMK A01 T00990057  RH  075%=      5-min Rain = 0
KPA1 240200Z 34007KT 10/06 A3006 RMK A01 T00990056  RH  075%=      5-min Rain = 0
KPA1 240201Z 34006KT 10/06 A3006 RMK A01 T00990057  RH  075%=      5-min Rain = 0
KPA1 240202Z 34008KT 10/06 A3006 RMK A01 T00990057  RH  075%=      5-min Rain = 0
KPA1 240203Z 34007KT 10/06 A3006 RMK A01 T00990057  RH  075%=      5-min Rain = 0
KPA1 240204Z 34008KT 10/06 A3007 RMK A01 T00990057  RH  075%=      5-min Rain = 0
KPA1 240205Z 34009KT 10/05 A3007 RMK A01 T00980054  RH  074%=      5-min Rain = 0
KPA1 240206Z 35008KT 10/05 A3007 RMK A01 T00990053  RH  073%=      5-min Rain = 0
KPA1 240207Z 35008KT 10/05 A3007 RMK A01 T00990053  RH  073%=      5-min Rain = 0
KPA1 240208Z 35008KT 10/05 A3007 RMK A01 T00990052  RH  073%=      5-min Rain = 0
KPA1 240209Z 35008KT 10/05 A3007 RMK A01 T00980052  RH  073%=      5-min Rain = 0
KPA1 240210Z 35008KT 10/05 A3007 RMK A01 T00980051  RH  073%=      5-min Rain = 0
KPA1 240211Z 35009KT 10/05 A3007 RMK A01 T00980050  RH  072%=      5-min Rain = 0
KPA1 240212Z 35007KT 10/05 A3007 RMK A01 T00980049  RH  072%=      5-min Rain = 0
KPA1 240213Z 36007KT 10/05 A3007 RMK A01 T00980050  RH  072%=      5-min Rain = 0
KPA1 240214Z 35007KT 10/05 A3007 RMK A01 T00960049  RH  072%=      5-min Rain = 0
KPA1 240215Z 00007KT 10/05 A3007 RMK A01 T00960048  RH  072%=      5-min Rain = 0
KPA1 240216Z 36007KT 10/05 A3007 RMK A01 T00950047  RH  072%=      5-min Rain = 0
KPA1 240217Z 35006KT 10/05 A3008 RMK A01 T00950047  RH  072%=      5-min Rain = 0
KPA1 240218Z 35008KT 10/05 A3008 RMK A01 T00950047  RH  072%=      5-min Rain = 0
KPA1 240219Z 34007KT 10/05 A3008 RMK A01 T00950046  RH  072%=      5-min Rain = 0
KPA1 240220Z 34008KT 10/05 A3008 RMK A01 T00950048  RH  072%=      5-min Rain = 0
KPA1 240221Z 35008KT 09/05 A3008 RMK A01 T00940048  RH  073%=      5-min Rain = 0
KPA1 240222Z 35007KT 09/05 A3008 RMK A01 T00930047  RH  073%=      5-min Rain = 0
KPA1 240223Z 34006KT 09/05 A3008 RMK A01 T00930048  RH  073%=      5-min Rain = 0
KPA1 240224Z 35006KT 09/05 A3008 RMK A01 T00920048  RH  074%=      5-min Rain = 0
KPA1 240225Z 35007KT 09/05 A3008 RMK A01 T00910047  RH  074%=      5-min Rain = 0
KPA1 240226Z 35007KT 09/05 A3008 RMK A01 T00900047  RH  074%=      5-min Rain = 0
KPA1 240227Z 35006KT 09/05 A3008 RMK A01 T00910048  RH  074%=      5-min Rain = 0
KPA1 240228Z 35006KT 09/05 A3008 RMK A01 T00900047  RH  075%=      5-min Rain = 0
KPA1 240229Z 35006KT 09/05 A3008 RMK A01 T00900047  RH  075%=      5-min Rain = 0
KPA1 240230Z 35006KT 09/05 A3008 RMK A01 T00900048  RH  075%=      5-min Rain = 0
KPA1 240231Z 00006KT 09/05 A3008 RMK A01 T00890048  RH  075%=      5-min Rain = 0
KPA1 240232Z 36006KT 09/05 A3008 RMK A01 T00890048  RH  075%=      5-min Rain = 0
KPA1 240233Z 36006KT 09/05 A3008 RMK A01 T00880047  RH  076%=      5-min Rain = 0
KPA1 240234Z 35007KT 09/05 A3008 RMK A01 T00870048  RH  076%=      5-min Rain = 0
KPA1 240235Z 35007KT 09/05 A3008 RMK A01 T00860048  RH  077%=      5-min Rain = 0
KPA1 240236Z 35007KT 09/05 A3008 RMK A01 T00860049  RH  078%=      5-min Rain = 0
KPA1 240237Z 35007KT 09/05 A3008 RMK A01 T00860050  RH  078%=      5-min Rain = 0
KPA1 240238Z 35008KT 09/05 A3008 RMK A01 T00860050  RH  078%=      5-min Rain = 0
KPA1 240239Z 35007KT 09/05 A3008 RMK A01 T00860051  RH  078%=      5-min Rain = 0
KPA1 240240Z 35007KT 09/05 A3008 RMK A01 T00870051  RH  078%=      5-min Rain = 0
KPA1 240241Z 35008KT 09/05 A3008 RMK A01 T00870051  RH  078%=      5-min Rain = 0
KPA1 240242Z 35007KT 09/05 A3008 RMK A01 T00870051  RH  078%=      5-min Rain = 0
KPA1 240243Z 35007KT 09/05 A3008 RMK A01 T00870051  RH  078%=      5-min Rain = 0
KPA1 240244Z 35007KT 09/05 A3008 RMK A01 T00870050  RH  078%=      5-min Rain = 0
KPA1 240245Z 35009KT 09/05 A3008 RMK A01 T00870050  RH  078%=      5-min Rain = 0
KPA1 240246Z 35008KT 09/05 A3008 RMK A01 T00870050  RH  077%=      5-min Rain = 0
KPA1 240247Z 35009KT 09/05 A3009 RMK A01 T00860048  RH  077%=      5-min Rain = 0
KPA1 240248Z 35008KT 09/05 A3009 RMK A01 T00860048  RH  077%=      5-min Rain = 0
KPA1 240249Z 34007KT 09/05 A3009 RMK A01 T00860049  RH  077%=      5-min Rain = 0
KPA1 240250Z 35007KT 09/05 A3009 RMK A01 T00850048  RH  077%=      5-min Rain = 0
KPA1 240251Z 34008KT 09/05 A3009 RMK A01 T00850048  RH  077%=      5-min Rain = 0
KPA1 240252Z 35007KT 09/05 A3009 RMK A01 T00850048  RH  077%=      5-min Rain = 0
KPA1 240253Z 35007KT 09/05 A3009 RMK A01 T00850048  RH  078%=      5-min Rain = 0
KPA1 240254Z 35009KT 08/05 A3008 RMK A01 T00840047  RH  078%=      5-min Rain = 0
KPA1 240255Z 35009KT 08/05 A3008 RMK A01 T00840046  RH  077%=      5-min Rain = 0
KPA1 240256Z 35008KT 08/05 A3008 RMK A01 T00840045  RH  077%=      5-min Rain = 0
KPA1 240257Z 35009KT 09/05 A3008 RMK A01 T00850046  RH  077%=      5-min Rain = 0
KPA1 240258Z 35008KT 08/05 A3008 RMK A01 T00840046  RH  077%=      5-min Rain = 0
KPA1 240259Z 35009KT 08/05 A3008 RMK A01 T00830046  RH  077%=      5-min Rain = 0
KPA1 240300Z 35008KT 08/05 A3008 RMK A01 T00830045  RH  077%=      5-min Rain = 0
KPA1 240301Z 35008KT 08/05 A3008 RMK A01 T00830045  RH  077%=      5-min Rain = 0
KPA1 240302Z 35007KT 08/05 A3008 RMK A01 T00830045  RH  077%=      5-min Rain = 0
KPA1 240303Z 35007KT 08/05 A3008 RMK A01 T00820045  RH  077%=      5-min Rain = 0
KPA1 240304Z 35007KT 08/05 A3008 RMK A01 T00820045  RH  078%=      5-min Rain = 0
KPA1 240305Z 35007KT 08/05 A3008 RMK A01 T00810045  RH  078%=      5-min Rain = 0
KPA1 240306Z 35007KT 08/04 A3008 RMK A01 T00810044  RH  078%=      5-min Rain = 0
KPA1 240307Z 36007KT 08/05 A3008 RMK A01 T00820045  RH  077%=      5-min Rain = 0
KPA1 240308Z 35007KT 08/05 A3008 RMK A01 T00810045  RH  078%=      5-min Rain = 0
KPA1 240309Z 36007KT 08/05 A3008 RMK A01 T00800045  RH  078%=      5-min Rain = 0
KPA1 240310Z 35007KT 08/04 A3008 RMK A01 T00790044  RH  079%=      5-min Rain = 0
KPA1 240311Z 35008KT 08/04 A3007 RMK A01 T00780044  RH  079%=      5-min Rain = 0
KPA1 240312Z 35008KT 08/04 A3007 RMK A01 T00780044  RH  079%=      5-min Rain = 0
KPA1 240313Z 36009KT 08/04 A3007 RMK A01 T00780044  RH  079%=      5-min Rain = 0
KPA1 240314Z 36009KT 08/04 A3007 RMK A01 T00770043  RH  079%=      5-min Rain = 0
KPA1 240315Z 35009KT 08/04 A3007 RMK A01 T00780043  RH  078%=      5-min Rain = 0
KPA1 240316Z 36009KT 08/04 A3007 RMK A01 T00790043  RH  078%=      5-min Rain = 0
KPA1 240317Z 00009KT 08/04 A3007 RMK A01 T00790043  RH  078%=      5-min Rain = 0
KPA1 240318Z 36009KT 08/04 A3007 RMK A01 T00780042  RH  078%=      5-min Rain = 0
KPA1 240319Z 00008KT 08/04 A3007 RMK A01 T00780042  RH  078%=      5-min Rain = 0
KPA1 240320Z 36009KT 08/04 A3007 RMK A01 T00780042  RH  078%=      5-min Rain = 0
KPA1 240321Z 36008KT 08/04 A3007 RMK A01 T00780042  RH  078%=      5-min Rain = 0
KPA1 240322Z 00009KT 08/04 A3007 RMK A01 T00780042  RH  078%=      5-min Rain = 0
KPA1 240323Z 36007KT 08/04 A3007 RMK A01 T00780041  RH  077%=      5-min Rain = 0
KPA1 240324Z 00007KT 08/04 A3007 RMK A01 T00780041  RH  078%=      5-min Rain = 0
KPA1 240325Z 00007KT 08/04 A3007 RMK A01 T00770041  RH  078%=      5-min Rain = 0
KPA1 240326Z 01006KT 08/04 A3007 RMK A01 T00770041  RH  078%=      5-min Rain = 0
KPA1 240327Z 00007KT 08/04 A3007 RMK A01 T00760041  RH  078%=      5-min Rain = 0
KPA1 240328Z 01008KT 08/04 A3007 RMK A01 T00760041  RH  078%=      5-min Rain = 0
KPA1 240329Z 01007KT 08/04 A3007 RMK A01 T00760041  RH  078%=      5-min Rain = 0
KPA1 240330Z 01007KT 08/04 A3007 RMK A01 T00770041  RH  078%=      5-min Rain = 0
KPA1 240331Z 01007KT 08/04 A3007 RMK A01 T00770042  RH  079%=      5-min Rain = 0
KPA1 240332Z 01007KT 08/04 A3007 RMK A01 T00770042  RH  079%=      5-min Rain = 0
KPA1 240333Z 00007KT 08/04 A3007 RMK A01 T00760043  RH  079%=      5-min Rain = 0
KPA1 240334Z 00006KT 08/04 A3007 RMK A01 T00760042  RH  079%=      5-min Rain = 0
KPA1 240335Z 00007KT 08/04 A3007 RMK A01 T00750042  RH  080%=      5-min Rain = 0
KPA1 240336Z 00007KT 08/04 A3007 RMK A01 T00750041  RH  079%=      5-min Rain = 0
KPA1 240337Z 00007KT 08/04 A3007 RMK A01 T00760042  RH  079%=      5-min Rain = 0
KPA1 240338Z 00007KT 08/04 A3007 RMK A01 T00760042  RH  079%=      5-min Rain = 0
KPA1 240339Z 01007KT 08/04 A3007 RMK A01 T00760042  RH  079%=      5-min Rain = 0
KPA1 240340Z 00006KT 08/04 A3007 RMK A01 T00750042  RH  079%=      5-min Rain = 0
KPA1 240341Z 36007KT 08/04 A3007 RMK A01 T00750042  RH  080%=      5-min Rain = 0
KPA1 240342Z 00007KT 07/04 A3007 RMK A01 T00740042  RH  080%=      5-min Rain = 0
KPA1 240343Z 36006KT 07/04 A3007 RMK A01 T00730042  RH  081%=      5-min Rain = 0
KPA1 240344Z 36006KT 07/04 A3007 RMK A01 T00720042  RH  081%=      5-min Rain = 0
KPA1 240345Z 36007KT 07/04 A3007 RMK A01 T00710042  RH  082%=      5-min Rain = 0
KPA1 240346Z 36006KT 07/04 A3007 RMK A01 T00710042  RH  082%=      5-min Rain = 0
KPA1 240347Z 36006KT 07/04 A3007 RMK A01 T00710042  RH  082%=      5-min Rain = 0
KPA1 240348Z 36006KT 07/04 A3007 RMK A01 T00710042  RH  082%=      5-min Rain = 0
KPA1 240349Z 36006KT 07/04 A3007 RMK A01 T00710042  RH  082%=      5-min Rain = 0
KPA1 240350Z 36006KT 07/04 A3008 RMK A01 T00710042  RH  082%=      5-min Rain = 0
KPA1 240351Z 36007KT 07/04 A3008 RMK A01 T00700042  RH  082%=      5-min Rain = 0
KPA1 240352Z 36006KT 07/04 A3008 RMK A01 T00700042  RH  082%=      5-min Rain = 0
KPA1 240353Z 36007KT 07/04 A3007 RMK A01 T00700041  RH  082%=      5-min Rain = 0
KPA1 240354Z 35007KT 07/04 A3007 RMK A01 T00700041  RH  082%=      5-min Rain = 0
KPA1 240355Z 35007KT 07/04 A3007 RMK A01 T00700041  RH  082%=      5-min Rain = 0
KPA1 240356Z 35007KT 07/04 A3007 RMK A01 T00700041  RH  082%=      5-min Rain = 0
KPA1 240357Z 35007KT 07/04 A3007 RMK A01 T00700041  RH  081%=      5-min Rain = 0
KPA1 240358Z 35007KT 07/04 A3007 RMK A01 T00710041  RH  081%=      5-min Rain = 0
KPA1 240359Z 35007KT 07/04 A3007 RMK A01 T00710041  RH  081%=      5-min Rain = 0
KPA1 240400Z 35007KT 07/04 A3007 RMK A01 T00710041  RH  081%=      5-min Rain = 0
KPA1 240401Z 35007KT 07/04 A3007 RMK A01 T00710040  RH  081%=      5-min Rain = 0
KPA1 240402Z 35006KT 07/04 A3007 RMK A01 T00710041  RH  081%=      5-min Rain = 0
KPA1 240403Z 36007KT 07/04 A3007 RMK A01 T00700040  RH  081%=      5-min Rain = 0
KPA1 240404Z 36006KT 07/04 A3007 RMK A01 T00700040  RH  081%=      5-min Rain = 0
KPA1 240405Z 36006KT 07/04 A3007 RMK A01 T00700039  RH  081%=      5-min Rain = 0
KPA1 240406Z 35006KT 07/04 A3007 RMK A01 T00700039  RH  080%=      5-min Rain = 0
KPA1 240407Z 35005KT 07/04 A3007 RMK A01 T00710039  RH  080%=      5-min Rain = 0
KPA1 240408Z 35006KT 07/04 A3007 RMK A01 T00710039  RH  080%=      5-min Rain = 0
KPA1 240409Z 35005KT 07/04 A3007 RMK A01 T00700039  RH  080%=      5-min Rain = 0
KPA1 240410Z 35005KT 07/04 A3007 RMK A01 T00700039  RH  081%=      5-min Rain = 0
KPA1 240411Z 35006KT 07/04 A3008 RMK A01 T00690039  RH  081%=      5-min Rain = 0
KPA1 240412Z 35006KT 07/04 A3008 RMK A01 T00690038  RH  081%=      5-min Rain = 0
KPA1 240413Z 35005KT 07/04 A3008 RMK A01 T00700038  RH  080%=      5-min Rain = 0
KPA1 240414Z 35005KT 07/04 A3008 RMK A01 T00700038  RH  080%=      5-min Rain = 0
KPA1 240415Z 35005KT 07/04 A3008 RMK A01 T00700038  RH  080%=      5-min Rain = 0
KPA1 240416Z 35005KT 07/04 A3008 RMK A01 T00700037  RH  080%=      5-min Rain = 0
KPA1 240417Z 34004KT 07/04 A3008 RMK A01 T00700037  RH  080%=      5-min Rain = 0
KPA1 240418Z 35005KT 07/04 A3008 RMK A01 T00700037  RH  080%=      5-min Rain = 0
KPA1 240419Z 35005KT 07/04 A3008 RMK A01 T00700037  RH  079%=      5-min Rain = 0
KPA1 240420Z 35005KT 07/04 A3008 RMK A01 T00700037  RH  080%=      5-min Rain = 0
KPA1 240421Z 35006KT 07/04 A3008 RMK A01 T00690036  RH  080%=      5-min Rain = 0
KPA1 240422Z 35006KT 07/04 A3008 RMK A01 T00680036  RH  080%=      5-min Rain = 0
KPA1 240423Z 35006KT 07/04 A3007 RMK A01 T00690037  RH  080%=      5-min Rain = 0
KPA1 240424Z 35006KT 07/04 A3007 RMK A01 T00680036  RH  080%=      5-min Rain = 0
KPA1 240425Z 35006KT 07/04 A3007 RMK A01 T00680036  RH  080%=      5-min Rain = 0
KPA1 240426Z 35007KT 07/04 A3007 RMK A01 T00680036  RH  080%=      5-min Rain = 0
KPA1 240427Z 34006KT 07/04 A3007 RMK A01 T00680036  RH  080%=      5-min Rain = 0
KPA1 240428Z 34007KT 07/04 A3007 RMK A01 T00690037  RH  080%=      5-min Rain = 0
KPA1 240429Z 34007KT 07/04 A3007 RMK A01 T00690037  RH  080%=      5-min Rain = 0
KPA1 240430Z 34007KT 07/04 A3006 RMK A01 T00680037  RH  081%=      5-min Rain = 0
KPA1 240431Z 34007KT 07/04 A3006 RMK A01 T00680037  RH  081%=      5-min Rain = 0
KPA1 240432Z 34007KT 07/04 A3006 RMK A01 T00680037  RH  081%=      5-min Rain = 0
KPA1 240433Z 34007KT 07/04 A3006 RMK A01 T00680037  RH  081%=      5-min Rain = 0
KPA1 240434Z 34007KT 07/04 A3006 RMK A01 T00680037  RH  081%=      5-min Rain = 0
KPA1 240435Z 34007KT 07/04 A3006 RMK A01 T00680037  RH  081%=      5-min Rain = 0
KPA1 240436Z 34007KT 07/04 A3006 RMK A01 T00680037  RH  081%=      5-min Rain = 0
KPA1 240437Z 34007KT 07/04 A3006 RMK A01 T00680037  RH  080%=      5-min Rain = 0
KPA1 240438Z 34006KT 07/04 A3006 RMK A01 T00680037  RH  080%=      5-min Rain = 0
KPA1 240439Z 34006KT 07/04 A3006 RMK A01 T00680038  RH  081%=      5-min Rain = 0
KPA1 240440Z 33004KT 07/04 A3006 RMK A01 T00670038  RH  082%=      5-min Rain = 0
KPA1 240441Z 33004KT 06/04 A3007 RMK A01 T00640037  RH  083%=      5-min Rain = 0
KPA1 240442Z 32004KT 06/04 A3007 RMK A01 T00630038  RH  084%=      5-min Rain = 0
KPA1 240443Z 32003KT 06/04 A3007 RMK A01 T00610038  RH  085%=      5-min Rain = 0
KPA1 240444Z 32003KT 06/04 A3007 RMK A01 T00610038  RH  085%=      5-min Rain = 0
KPA1 240445Z 32003KT 06/04 A3008 RMK A01 T00600038  RH  086%=      5-min Rain = 0
KPA1 240446Z 32003KT 06/04 A3008 RMK A01 T00590038  RH  087%=      5-min Rain = 0
KPA1 240447Z 32004KT 06/04 A3008 RMK A01 T00590039  RH  087%=      5-min Rain = 0
KPA1 240448Z 32004KT 06/04 A3007 RMK A01 T00580038  RH  087%=      5-min Rain = 0
KPA1 240449Z 33005KT 06/04 A3007 RMK A01 T00580039  RH  088%=      5-min Rain = 0
KPA1 240450Z 33006KT 06/04 A3007 RMK A01 T00570039  RH  088%=      5-min Rain = 0
KPA1 240451Z 32007KT 06/04 A3007 RMK A01 T00560038  RH  089%=      5-min Rain = 0
KPA1 240452Z 32007KT 06/04 A3007 RMK A01 T00560039  RH  089%=      5-min Rain = 0
KPA1 240453Z 32007KT 06/04 A3006 RMK A01 T00560039  RH  089%=      5-min Rain = 0
KPA1 240454Z 32007KT 06/04 A3006 RMK A01 T00560040  RH  089%=      5-min Rain = 0
KPA1 240455Z 32008KT 06/04 A3006 RMK A01 T00560040  RH  089%=      5-min Rain = 0
KPA1 240456Z 32007KT 06/04 A3006 RMK A01 T00570040  RH  089%=      5-min Rain = 0
KPA1 240457Z 32007KT 06/04 A3006 RMK A01 T00570040  RH  089%=      5-min Rain = 0
KPA1 240458Z 32007KT 06/04 A3006 RMK A01 T00570039  RH  088%=      5-min Rain = 0
KPA1 240459Z 32007KT 06/04 A3006 RMK A01 T00570040  RH  088%=      5-min Rain = 0

Page generated in 0.1867 seconds.